Observation data for Bootleg on 01/19/2019      Previous  Date  Next       Current Mesonet Observations  Soil Data  Daily Summary Page  Observations in Plain Language
KBO1 190600Z 34021G26KT M01/M02 A3012 RMK A01 T10141024  RH  093%=      5-min Rain = 0
KBO1 190601Z 34020KT M01/M02 A3012 RMK A01 T10141024  RH  093%=      5-min Rain = 0
KBO1 190602Z 34022G27KT M01/M03 A3012 RMK A01 T10141025  RH  093%=      5-min Rain = 0
KBO1 190603Z 34025KT M01/M03 A3012 RMK A01 T10141025  RH  093%=      5-min Rain = 0
KBO1 190604Z 34023KT M01/M03 A3012 RMK A01 T10141025  RH  092%=      5-min Rain = 0
KBO1 190605Z 34018KT M01/M03 A3012 RMK A01 T10141025  RH  092%=      5-min Rain = 0
KBO1 190606Z 34019KT M01/M03 A3012 RMK A01 T10141025  RH  092%=      5-min Rain = 0
KBO1 190607Z 34022G27KT M02/M03 A3012 RMK A01 T10151026  RH  092%=      5-min Rain = 0
KBO1 190608Z 34022KT M02/M03 A3012 RMK A01 T10151026  RH  092%=      5-min Rain = 0
KBO1 190609Z 34020KT M02/M03 A3013 RMK A01 T10151026  RH  092%=      5-min Rain = 0
KBO1 190610Z 34022KT M02/M03 A3013 RMK A01 T10151026  RH  092%=      5-min Rain = 0
KBO1 190611Z 34021KT M02/M03 A3013 RMK A01 T10151026  RH  092%=      5-min Rain = 0
KBO1 190612Z 34021KT M02/M03 A3013 RMK A01 T10151026  RH  092%=      5-min Rain = 0
KBO1 190613Z 34020KT M02/M03 A3013 RMK A01 T10151026  RH  092%=      5-min Rain = 0
KBO1 190614Z 34023KT M02/M03 A3013 RMK A01 T10151026  RH  092%=      5-min Rain = 0
KBO1 190615Z 34023KT M02/M03 A3013 RMK A01 T10151026  RH  092%=      5-min Rain = 0
KBO1 190616Z 34021KT M02/M03 A3013 RMK A01 T10151027  RH  092%=      5-min Rain = 0
KBO1 190617Z 34021KT M02/M03 A3013 RMK A01 T10151026  RH  092%=      5-min Rain = 0
KBO1 190618Z 34021KT M01/M03 A3013 RMK A01 T10141026  RH  092%=      5-min Rain = 0
KBO1 190619Z 34020KT M02/M03 A3013 RMK A01 T10151026  RH  092%=      5-min Rain = 0
KBO1 190620Z 34020KT M02/M03 A3013 RMK A01 T10151026  RH  092%=      5-min Rain = 0
KBO1 190621Z 34020KT M02/M03 A3013 RMK A01 T10151027  RH  092%=      5-min Rain = 0
KBO1 190622Z 34021KT M02/M03 A3013 RMK A01 T10151027  RH  092%=      5-min Rain = 0
KBO1 190623Z 34021G26KT M02/M03 A3013 RMK A01 T10151027  RH  092%=      5-min Rain = 0
KBO1 190624Z 34021KT M02/M03 A3013 RMK A01 T10151027  RH  092%=      5-min Rain = 0
KBO1 190625Z 34021KT M02/M03 A3013 RMK A01 T10151027  RH  092%=      5-min Rain = 0
KBO1 190626Z 35022KT M02/M03 A3013 RMK A01 T10151027  RH  092%=      5-min Rain = 0
KBO1 190627Z 34019G24KT M02/M03 A3013 RMK A01 T10151027  RH  091%=      5-min Rain = 0
KBO1 190628Z 34021KT M02/M03 A3013 RMK A01 T10151027  RH  091%=      5-min Rain = 0
KBO1 190629Z 34023KT M02/M03 A3013 RMK A01 T10151027  RH  091%=      5-min Rain = 0
KBO1 190630Z 34020KT M01/M03 A3013 RMK A01 T10141027  RH  091%=      5-min Rain = 0
KBO1 190631Z 34019KT M02/M03 A3013 RMK A01 T10151027  RH  091%=      5-min Rain = 0
KBO1 190632Z 34020KT M02/M03 A3013 RMK A01 T10151028  RH  091%=      5-min Rain = 0
KBO1 190633Z 34021KT M02/M03 A3013 RMK A01 T10151027  RH  091%=      5-min Rain = 0
KBO1 190634Z 34020KT M02/M03 A3014 RMK A01 T10151027  RH  091%=      5-min Rain = 0
KBO1 190635Z 34020KT M02/M03 A3014 RMK A01 T10151028  RH  091%=      5-min Rain = 0
KBO1 190636Z 34019KT M02/M03 A3014 RMK A01 T10151027  RH  091%=      5-min Rain = 0
KBO1 190637Z 34020G25KT M02/M03 A3013 RMK A01 T10161028  RH  091%=      5-min Rain = 0
KBO1 190638Z 34023KT M02/M03 A3013 RMK A01 T10161028  RH  091%=      5-min Rain = 0
KBO1 190639Z 34021KT M02/M03 A3013 RMK A01 T10161028  RH  092%=      5-min Rain = 0
KBO1 190640Z 34018KT M02/M03 A3013 RMK A01 T10151028  RH  091%=      5-min Rain = 0
KBO1 190641Z 34017KT M02/M03 A3014 RMK A01 T10151028  RH  091%=      5-min Rain = 0
KBO1 190642Z 34019KT M02/M03 A3014 RMK A01 T10161028  RH  091%=      5-min Rain = 0
KBO1 190643Z 34017KT M02/M03 A3014 RMK A01 T10161028  RH  092%=      5-min Rain = 0
KBO1 190644Z 34019KT M02/M03 A3014 RMK A01 T10161028  RH  092%=      5-min Rain = 0
KBO1 190645Z 34018KT M02/M03 A3014 RMK A01 T10161027  RH  092%=      5-min Rain = 0
KBO1 190646Z 34019KT M02/M03 A3014 RMK A01 T10161027  RH  092%=      5-min Rain = 0
KBO1 190647Z 34019KT M02/M03 A3014 RMK A01 T10161027  RH  092%=      5-min Rain = 0
KBO1 190648Z 34019KT M02/M03 A3014 RMK A01 T10171028  RH  092%=      5-min Rain = 0
KBO1 190649Z 34019KT M02/M03 A3014 RMK A01 T10161028  RH  092%=      5-min Rain = 0
KBO1 190650Z 34020G25KT M02/M03 A3014 RMK A01 T10171028  RH  092%=      5-min Rain = 0
KBO1 190651Z 34020KT M02/M03 A3014 RMK A01 T10161028  RH  092%=      5-min Rain = 0
KBO1 190652Z 34019KT M02/M03 A3014 RMK A01 T10161028  RH  092%=      5-min Rain = 0
KBO1 190653Z 34020KT M02/M03 A3014 RMK A01 T10161028  RH  092%=      5-min Rain = 0
KBO1 190654Z 34019KT M02/M03 A3014 RMK A01 T10161028  RH  092%=      5-min Rain = 0
KBO1 190655Z 34020KT M02/M03 A3014 RMK A01 T10171029  RH  092%=      5-min Rain = 0
KBO1 190656Z 34018KT M02/M03 A3014 RMK A01 T10171029  RH  092%=      5-min Rain = 0
KBO1 190657Z 34018KT M02/M03 A3014 RMK A01 T10171029  RH  092%=      5-min Rain = 0
KBO1 190658Z 34018KT M02/M03 A3014 RMK A01 T10171029  RH  092%=      5-min Rain = 0
KBO1 190659Z 34019KT M02/M03 A3014 RMK A01 T10171029  RH  092%=      5-min Rain = 0
KBO1 190700Z 34019KT M02/M03 A3014 RMK A01 T10171029  RH  092%=      5-min Rain = 0
KBO1 190701Z 34020KT M02/M03 A3014 RMK A01 T10171029  RH  092%=      5-min Rain = 0
KBO1 190702Z 34018KT M02/M03 A3014 RMK A01 T10171029  RH  092%=      5-min Rain = 0
KBO1 190703Z 34017KT M02/M03 A3014 RMK A01 T10171029  RH  092%=      5-min Rain = 0
KBO1 190704Z 34020KT M02/M03 A3014 RMK A01 T10181029  RH  092%=      5-min Rain = 0
KBO1 190705Z 34019KT M02/M03 A3014 RMK A01 T10181030  RH  092%=      5-min Rain = 0
KBO1 190706Z 34018KT M02/M03 A3014 RMK A01 T10181030  RH  092%=      5-min Rain = 0
KBO1 190707Z 34018KT M02/M03 A3014 RMK A01 T10181030  RH  092%=      5-min Rain = 0
KBO1 190708Z 34019KT M02/M03 A3014 RMK A01 T10181030  RH  092%=      5-min Rain = 0
KBO1 190709Z 34019KT M02/M03 A3014 RMK A01 T10181030  RH  092%=      5-min Rain = 0
KBO1 190710Z 34016G21KT M02/M03 A3014 RMK A01 T10181030  RH  092%=      5-min Rain = 0
KBO1 190711Z 34017KT M02/M03 A3014 RMK A01 T10181030  RH  091%=      5-min Rain = 0
KBO1 190712Z 34019KT M02/M03 A3014 RMK A01 T10181030  RH  091%=      5-min Rain = 0
KBO1 190713Z 33017KT M02/M03 A3014 RMK A01 T10181030  RH  091%=      5-min Rain = 0
KBO1 190714Z 33019KT M02/M03 A3014 RMK A01 T10181030  RH  091%=      5-min Rain = 0
KBO1 190715Z 34019G24KT M02/M03 A3014 RMK A01 T10181030  RH  091%=      5-min Rain = 0
KBO1 190716Z 34019KT M02/M03 A3014 RMK A01 T10181030  RH  091%=      5-min Rain = 0
KBO1 190717Z 34020G25KT M02/M03 A3014 RMK A01 T10181031  RH  091%=      5-min Rain = 0
KBO1 190718Z 34021KT M02/M03 A3014 RMK A01 T10171030  RH  091%=      5-min Rain = 0
KBO1 190719Z 34019KT M02/M03 A3014 RMK A01 T10171031  RH  091%=      5-min Rain = 0
KBO1 190720Z 34019G24KT M02/M03 A3014 RMK A01 T10171031  RH  091%=      5-min Rain = 0
KBO1 190721Z 34022KT M02/M03 A3014 RMK A01 T10171031  RH  091%=      5-min Rain = 0
KBO1 190722Z 34020KT M02/M03 A3014 RMK A01 T10171031  RH  090%=      5-min Rain = 0
KBO1 190723Z 34022KT M02/M03 A3014 RMK A01 T10171031  RH  090%=      5-min Rain = 0
KBO1 190724Z 34022KT M02/M03 A3014 RMK A01 T10171031  RH  090%=      5-min Rain = 0
KBO1 190725Z 34020KT M02/M03 A3014 RMK A01 T10161031  RH  090%=      5-min Rain = 0
KBO1 190726Z 34020KT M02/M03 A3014 RMK A01 T10161031  RH  090%=      5-min Rain = 0
KBO1 190727Z 34021KT M02/M03 A3014 RMK A01 T10161031  RH  090%=      5-min Rain = 0
KBO1 190728Z 33020KT M02/M03 A3014 RMK A01 T10171031  RH  090%=      5-min Rain = 0
KBO1 190729Z 33018KT M02/M03 A3014 RMK A01 T10171031  RH  090%=      5-min Rain = 0
KBO1 190730Z 33019KT M02/M03 A3014 RMK A01 T10171032  RH  090%=      5-min Rain = 0
KBO1 190731Z 33017KT M02/M03 A3014 RMK A01 T10171032  RH  090%=      5-min Rain = 0
KBO1 190732Z 33016KT M02/M03 A3014 RMK A01 T10181032  RH  090%=      5-min Rain = 0
KBO1 190733Z 33016KT M02/M03 A3015 RMK A01 T10191033  RH  090%=      5-min Rain = 0
KBO1 190734Z 33017KT M02/M03 A3015 RMK A01 T10191033  RH  090%=      5-min Rain = 0
KBO1 190735Z 33017KT M02/M03 A3015 RMK A01 T10201033  RH  091%=      5-min Rain = 0
KBO1 190736Z 33017KT M02/M03 A3015 RMK A01 T10201032  RH  091%=      5-min Rain = 0
KBO1 190737Z 33018KT M02/M03 A3015 RMK A01 T10201032  RH  091%=      5-min Rain = 0
KBO1 190738Z 33018KT M02/M03 A3015 RMK A01 T10201032  RH  091%=      5-min Rain = 0
KBO1 190739Z 33017KT M02/M03 A3015 RMK A01 T10201032  RH  092%=      5-min Rain = 0
KBO1 190740Z 33019KT M02/M03 A3015 RMK A01 T10201032  RH  092%=      5-min Rain = 0
KBO1 190741Z 33017KT M02/M03 A3015 RMK A01 T10201032  RH  092%=      5-min Rain = 0
KBO1 190742Z 33017KT M02/M03 A3015 RMK A01 T10201032  RH  092%=      5-min Rain = 0
KBO1 190743Z 33017KT M02/M03 A3015 RMK A01 T10201032  RH  092%=      5-min Rain = 0
KBO1 190744Z 33018KT M02/M03 A3015 RMK A01 T10201032  RH  092%=      5-min Rain = 0
KBO1 190745Z 33017KT M02/M03 A3015 RMK A01 T10201032  RH  092%=      5-min Rain = 0
KBO1 190746Z 33017KT M02/M03 A3015 RMK A01 T10211032  RH  092%=      5-min Rain = 0
KBO1 190747Z 33017KT M02/M03 A3015 RMK A01 T10211032  RH  092%=      5-min Rain = 0
KBO1 190748Z 33017KT M02/M03 A3015 RMK A01 T10211033  RH  092%=      5-min Rain = 0
KBO1 190749Z 33017KT M02/M03 A3015 RMK A01 T10221033  RH  092%=      5-min Rain = 0
KBO1 190750Z 33018KT M02/M03 A3015 RMK A01 T10211032  RH  092%=      5-min Rain = 0
KBO1 190751Z 33018KT M02/M03 A3015 RMK A01 T10211032  RH  092%=      5-min Rain = 0
KBO1 190752Z 33018KT M02/M03 A3015 RMK A01 T10211032  RH  092%=      5-min Rain = 0
KBO1 190753Z 33018KT M02/M03 A3015 RMK A01 T10211032  RH  092%=      5-min Rain = 0
KBO1 190754Z 33018KT M02/M03 A3015 RMK A01 T10211032  RH  092%=      5-min Rain = 0
KBO1 190755Z 33018KT M02/M03 A3015 RMK A01 T10201032  RH  092%=      5-min Rain = 0
KBO1 190756Z 33017KT M02/M03 A3015 RMK A01 T10211032  RH  092%=      5-min Rain = 0
KBO1 190757Z 33017KT M02/M03 A3015 RMK A01 T10201032  RH  092%=      5-min Rain = 0
KBO1 190758Z 33018KT M02/M03 A3015 RMK A01 T10201032  RH  092%=      5-min Rain = 0
KBO1 190759Z 33017KT M02/M03 A3015 RMK A01 T10201032  RH  092%=      5-min Rain = 0
KBO1 190800Z 33018KT M02/M03 A3015 RMK A01 T10191031  RH  092%=      5-min Rain = 0
KBO1 190801Z 33017KT M02/M03 A3015 RMK A01 T10191032  RH  091%=      5-min Rain = 0
KBO1 190802Z 33019KT M02/M03 A3015 RMK A01 T10191032  RH  091%=      5-min Rain = 0
KBO1 190803Z 33019KT M02/M03 A3015 RMK A01 T10191032  RH  091%=      5-min Rain = 0
KBO1 190804Z 33019KT M02/M03 A3015 RMK A01 T10181032  RH  091%=      5-min Rain = 0
KBO1 190805Z 33020KT M02/M03 A3015 RMK A01 T10171031  RH  091%=      5-min Rain = 0
KBO1 190806Z 34018KT M02/M03 A3015 RMK A01 T10171031  RH  090%=      5-min Rain = 0
KBO1 190807Z 34018KT M02/M03 A3015 RMK A01 T10171032  RH  090%=      5-min Rain = 0
KBO1 190808Z 34019KT M02/M03 A3015 RMK A01 T10171032  RH  090%=      5-min Rain = 0
KBO1 190809Z 33018KT M02/M03 A3015 RMK A01 T10171032  RH  090%=      5-min Rain = 0
KBO1 190810Z 33017KT M02/M03 A3015 RMK A01 T10171032  RH  090%=      5-min Rain = 0
KBO1 190811Z 33019KT M02/M03 A3015 RMK A01 T10181033  RH  090%=      5-min Rain = 0
KBO1 190812Z 33019KT M02/M03 A3015 RMK A01 T10181033  RH  090%=      5-min Rain = 0
KBO1 190813Z 33019KT M02/M03 A3015 RMK A01 T10181032  RH  090%=      5-min Rain = 0
KBO1 190814Z 33018KT M02/M03 A3015 RMK A01 T10171032  RH  089%=      5-min Rain = 0
KBO1 190815Z 34018KT M02/M03 A3015 RMK A01 T10171032  RH  089%=      5-min Rain = 0
KBO1 190816Z 33019KT M02/M03 A3015 RMK A01 T10171033  RH  089%=      5-min Rain = 0
KBO1 190817Z 33019KT M02/M03 A3015 RMK A01 T10171032  RH  089%=      5-min Rain = 0
KBO1 190818Z 34020KT M02/M03 A3015 RMK A01 T10161032  RH  089%=      5-min Rain = 0
KBO1 190819Z 33020KT M02/M03 A3015 RMK A01 T10161032  RH  089%=      5-min Rain = 0
KBO1 190820Z 33020KT M02/M03 A3015 RMK A01 T10151032  RH  088%=      5-min Rain = 0
KBO1 190821Z 33018KT M02/M03 A3015 RMK A01 T10151032  RH  088%=      5-min Rain = 0
KBO1 190822Z 33019KT M01/M03 A3015 RMK A01 T10141032  RH  088%=      5-min Rain = 0
KBO1 190823Z 34018KT M01/M03 A3015 RMK A01 T10141032  RH  088%=      5-min Rain = 0
KBO1 190824Z 33019KT M01/M03 A3015 RMK A01 T10141032  RH  088%=      5-min Rain = 0
KBO1 190825Z 33019KT M01/M03 A3015 RMK A01 T10141032  RH  087%=      5-min Rain = 0
KBO1 190826Z 34019KT M01/M03 A3015 RMK A01 T10141032  RH  087%=      5-min Rain = 0
KBO1 190827Z 34019KT M01/M03 A3015 RMK A01 T10131032  RH  087%=      5-min Rain = 0
KBO1 190828Z 33019KT M01/M03 A3015 RMK A01 T10141032  RH  087%=      5-min Rain = 0
KBO1 190829Z 34020KT M01/M03 A3015 RMK A01 T10141032  RH  087%=      5-min Rain = 0
KBO1 190830Z 33018KT M01/M03 A3015 RMK A01 T10141032  RH  087%=      5-min Rain = 0
KBO1 190831Z 33019KT M01/M03 A3015 RMK A01 T10141032  RH  087%=      5-min Rain = 0
KBO1 190832Z 33019KT M01/M03 A3015 RMK A01 T10141032  RH  087%=      5-min Rain = 0
KBO1 190833Z 33021KT M01/M03 A3015 RMK A01 T10141032  RH  087%=      5-min Rain = 0
KBO1 190834Z 33020KT M01/M03 A3015 RMK A01 T10131032  RH  087%=      5-min Rain = 0
KBO1 190835Z 33022KT M01/M03 A3015 RMK A01 T10131032  RH  087%=      5-min Rain = 0
KBO1 190836Z 33021KT M01/M03 A3015 RMK A01 T10121032  RH  086%=      5-min Rain = 0
KBO1 190837Z 33020KT M01/M03 A3015 RMK A01 T10121032  RH  086%=      5-min Rain = 0
KBO1 190838Z 33021KT M01/M03 A3015 RMK A01 T10111032  RH  086%=      5-min Rain = 0
KBO1 190839Z 33021KT M01/M03 A3015 RMK A01 T10111032  RH  086%=      5-min Rain = 0
KBO1 190840Z 33022KT M01/M03 A3015 RMK A01 T10111032  RH  085%=      5-min Rain = 0
KBO1 190841Z 33020G27KT M01/M03 A3015 RMK A01 T10111033  RH  085%=      5-min Rain = 0
KBO1 190842Z 33020KT M01/M03 A3015 RMK A01 T10111033  RH  085%=      5-min Rain = 0
KBO1 190843Z 33023KT M01/M03 A3015 RMK A01 T10111033  RH  085%=      5-min Rain = 0
KBO1 190844Z 33020KT M01/M03 A3015 RMK A01 T10111033  RH  085%=      5-min Rain = 0
KBO1 190845Z 33021KT M01/M03 A3015 RMK A01 T10111033  RH  085%=      5-min Rain = 0
KBO1 190846Z 33019KT M01/M03 A3015 RMK A01 T10121033  RH  086%=      5-min Rain = 0
KBO1 190847Z 33021KT M01/M03 A3015 RMK A01 T10121033  RH  086%=      5-min Rain = 0
KBO1 190848Z 33020KT M01/M03 A3015 RMK A01 T10121033  RH  086%=      5-min Rain = 0
KBO1 190849Z 33020KT M01/M03 A3015 RMK A01 T10131033  RH  086%=      5-min Rain = 0
KBO1 190850Z 33019KT M01/M03 A3015 RMK A01 T10131034  RH  086%=      5-min Rain = 0
KBO1 190851Z 33019KT M01/M03 A3015 RMK A01 T10141034  RH  086%=      5-min Rain = 0
KBO1 190852Z 33022KT M01/M03 A3015 RMK A01 T10141033  RH  086%=      5-min Rain = 0
KBO1 190853Z 33019KT M01/M03 A3015 RMK A01 T10131033  RH  086%=      5-min Rain = 0
KBO1 190854Z 33020KT M01/M03 A3015 RMK A01 T10131034  RH  086%=      5-min Rain = 0
KBO1 190855Z 33020KT M01/M03 A3015 RMK A01 T10131034  RH  086%=      5-min Rain = 0
KBO1 190856Z 33021KT M01/M03 A3015 RMK A01 T10121033  RH  086%=      5-min Rain = 0
KBO1 190857Z 33018KT M01/M03 A3015 RMK A01 T10121033  RH  085%=      5-min Rain = 0
KBO1 190858Z 33019KT M01/M03 A3015 RMK A01 T10121034  RH  085%=      5-min Rain = 0
KBO1 190859Z 33019KT M01/M03 A3015 RMK A01 T10131034  RH  086%=      5-min Rain = 0
KBO1 190900Z 33019KT M01/M03 A3016 RMK A01 T10131034  RH  086%=      5-min Rain = 0
KBO1 190901Z 32018G23KT M01/M03 A3016 RMK A01 T10121034  RH  085%=      5-min Rain = 0
KBO1 190902Z 33019KT M01/M03 A3016 RMK A01 T10121034  RH  085%=      5-min Rain = 0
KBO1 190903Z 33020KT M01/M03 A3015 RMK A01 T10121034  RH  085%=      5-min Rain = 0
KBO1 190904Z 33022KT M01/M03 A3015 RMK A01 T10111033  RH  085%=      5-min Rain = 0
KBO1 190905Z 33019KT M01/M03 A3016 RMK A01 T10101033  RH  084%=      5-min Rain = 0
KBO1 190906Z 33022KT M01/M03 A3016 RMK A01 T10101033  RH  084%=      5-min Rain = 0
KBO1 190907Z 33021KT M01/M03 A3016 RMK A01 T10101034  RH  084%=      5-min Rain = 0
KBO1 190908Z 33020KT M01/M03 A3016 RMK A01 T10101034  RH  084%=      5-min Rain = 0
KBO1 190909Z 33018KT M01/M03 A3016 RMK A01 T10101034  RH  084%=      5-min Rain = 0
KBO1 190910Z 33019KT M01/M03 A3016 RMK A01 T10111034  RH  084%=      5-min Rain = 0
KBO1 190911Z 33018KT M01/M03 A3016 RMK A01 T10111034  RH  084%=      5-min Rain = 0
KBO1 190912Z 33019KT M01/M03 A3016 RMK A01 T10121034  RH  085%=      5-min Rain = 0
KBO1 190913Z 33020KT M01/M03 A3016 RMK A01 T10111034  RH  085%=      5-min Rain = 0
KBO1 190914Z 33020KT M01/M03 A3016 RMK A01 T10111034  RH  084%=      5-min Rain = 0
KBO1 190915Z 33019KT M01/M03 A3016 RMK A01 T10101034  RH  084%=      5-min Rain = 0
KBO1 190916Z 32020KT M01/M03 A3016 RMK A01 T10101034  RH  084%=      5-min Rain = 0
KBO1 190917Z 33019KT M01/M03 A3016 RMK A01 T10101034  RH  084%=      5-min Rain = 0
KBO1 190918Z 33020KT M01/M03 A3016 RMK A01 T10101034  RH  084%=      5-min Rain = 0
KBO1 190919Z 33020KT M01/M03 A3016 RMK A01 T10101034  RH  084%=      5-min Rain = 0
KBO1 190920Z 33019KT M01/M03 A3016 RMK A01 T10101034  RH  083%=      5-min Rain = 0
KBO1 190921Z 32020KT M01/M03 A3016 RMK A01 T10101034  RH  083%=      5-min Rain = 0
KBO1 190922Z 33019KT M01/M04 A3017 RMK A01 T10091035  RH  083%=      5-min Rain = 0
KBO1 190923Z 32020KT M01/M04 A3017 RMK A01 T10091035  RH  083%=      5-min Rain = 0
KBO1 190924Z 32021G27KT M01/M04 A3016 RMK A01 T10091035  RH  083%=      5-min Rain = 0
KBO1 190925Z 32019G26KT M01/M04 A3016 RMK A01 T10081035  RH  082%=      5-min Rain = 0
KBO1 190926Z 33020KT M01/M04 A3016 RMK A01 T10071035  RH  082%=      5-min Rain = 0
KBO1 190927Z 33020KT M01/M04 A3016 RMK A01 T10081035  RH  082%=      5-min Rain = 0
KBO1 190928Z 33022KT M01/M04 A3016 RMK A01 T10071035  RH  081%=      5-min Rain = 0
KBO1 190929Z 33021KT M01/M04 A3016 RMK A01 T10061035  RH  081%=      5-min Rain = 0
KBO1 190930Z 33022G29KT M01/M04 A3016 RMK A01 T10061035  RH  081%=      5-min Rain = 0
KBO1 190931Z 33021G27KT M01/M04 A3016 RMK A01 T10061035  RH  081%=      5-min Rain = 0
KBO1 190932Z 33023KT M01/M04 A3016 RMK A01 T10051035  RH  080%=      5-min Rain = 0
KBO1 190933Z 33022KT M01/M04 A3016 RMK A01 T10051035  RH  080%=      5-min Rain = 0
KBO1 190934Z 33022KT M01/M04 A3017 RMK A01 T10061035  RH  081%=      5-min Rain = 0
KBO1 190935Z 33023KT M01/M04 A3016 RMK A01 T10071035  RH  081%=      5-min Rain = 0
KBO1 190936Z 33022G28KT M01/M04 A3017 RMK A01 T10071035  RH  081%=      5-min Rain = 0
KBO1 190937Z 33022KT M01/M04 A3017 RMK A01 T10071035  RH  081%=      5-min Rain = 0
KBO1 190938Z 33023KT M01/M04 A3017 RMK A01 T10071036  RH  081%=      5-min Rain = 0
KBO1 190939Z 33023G28KT M01/M04 A3017 RMK A01 T10081036  RH  081%=      5-min Rain = 0
KBO1 190940Z 33024KT M01/M04 A3017 RMK A01 T10071036  RH  081%=      5-min Rain = 0
KBO1 190941Z 33022KT M01/M04 A3017 RMK A01 T10071036  RH  081%=      5-min Rain = 0
KBO1 190942Z 33021KT M01/M04 A3017 RMK A01 T10071036  RH  081%=      5-min Rain = 0
KBO1 190943Z 33022KT M01/M04 A3017 RMK A01 T10081036  RH  081%=      5-min Rain = 0
KBO1 190944Z 34022KT M01/M04 A3017 RMK A01 T10081036  RH  082%=      5-min Rain = 0
KBO1 190945Z 34022G27KT M01/M04 A3017 RMK A01 T10081036  RH  082%=      5-min Rain = 0
KBO1 190946Z 33021G26KT M01/M04 A3017 RMK A01 T10091036  RH  082%=      5-min Rain = 0
KBO1 190947Z 33022KT M01/M04 A3017 RMK A01 T10091036  RH  082%=      5-min Rain = 0
KBO1 190948Z 33020G25KT M01/M04 A3017 RMK A01 T10091036  RH  082%=      5-min Rain = 0
KBO1 190949Z 33021KT M01/M04 A3017 RMK A01 T10091036  RH  082%=      5-min Rain = 0
KBO1 190950Z 33021KT M01/M04 A3017 RMK A01 T10091036  RH  082%=      5-min Rain = 0
KBO1 190951Z 33022KT M01/M04 A3017 RMK A01 T10091036  RH  082%=      5-min Rain = 0
KBO1 190952Z 34023KT M01/M04 A3017 RMK A01 T10091036  RH  082%=      5-min Rain = 0
KBO1 190953Z 33023KT M01/M04 A3017 RMK A01 T10081035  RH  082%=      5-min Rain = 0
KBO1 190954Z 34022KT M01/M04 A3017 RMK A01 T10081036  RH  081%=      5-min Rain = 0
KBO1 190955Z 33023KT M01/M04 A3017 RMK A01 T10081036  RH  081%=      5-min Rain = 0
KBO1 190956Z 33022KT M01/M04 A3017 RMK A01 T10081036  RH  081%=      5-min Rain = 0
KBO1 190957Z 33021KT M01/M04 A3017 RMK A01 T10081036  RH  081%=      5-min Rain = 0
KBO1 190958Z 33021G26KT M01/M04 A3017 RMK A01 T10081036  RH  081%=      5-min Rain = 0
KBO1 190959Z 34020G27KT M01/M04 A3017 RMK A01 T10081036  RH  081%=      5-min Rain = 0
KBO1 191000Z 34021KT M01/M04 A3017 RMK A01 T10101037  RH  082%=      5-min Rain = 0
KBO1 191001Z 34018G23KT M01/M04 A3018 RMK A01 T10101037  RH  082%=      5-min Rain = 0
KBO1 191002Z 34022KT M01/M04 A3017 RMK A01 T10111037  RH  082%=      5-min Rain = 0
KBO1 191003Z 34020KT M01/M04 A3018 RMK A01 T10111037  RH  083%=      5-min Rain = 0
KBO1 191004Z 34019KT M01/M04 A3018 RMK A01 T10111037  RH  083%=      5-min Rain = 0
KBO1 191005Z 34018KT M01/M04 A3018 RMK A01 T10121037  RH  083%=      5-min Rain = 0
KBO1 191006Z 34018KT M01/M04 A3018 RMK A01 T10131037  RH  083%=      5-min Rain = 0
KBO1 191007Z 34020KT M01/M04 A3018 RMK A01 T10141038  RH  084%=      5-min Rain = 0
KBO1 191008Z 34020KT M01/M04 A3018 RMK A01 T10141037  RH  084%=      5-min Rain = 0
KBO1 191009Z 34019G24KT M01/M04 A3018 RMK A01 T10131037  RH  084%=      5-min Rain = 0
KBO1 191010Z 34020KT M01/M04 A3018 RMK A01 T10131038  RH  083%=      5-min Rain = 0
KBO1 191011Z 34018KT M01/M04 A3018 RMK A01 T10131037  RH  083%=      5-min Rain = 0
KBO1 191012Z 34018KT M01/M04 A3018 RMK A01 T10141038  RH  083%=      5-min Rain = 0
KBO1 191013Z 34018KT M01/M04 A3018 RMK A01 T10141038  RH  084%=      5-min Rain = 0
KBO1 191014Z 34019KT M01/M04 A3018 RMK A01 T10141038  RH  084%=      5-min Rain = 0
KBO1 191015Z 34018G23KT M01/M04 A3018 RMK A01 T10141038  RH  084%=      5-min Rain = 0
KBO1 191016Z 34019KT M01/M04 A3018 RMK A01 T10141038  RH  084%=      5-min Rain = 0
KBO1 191017Z 34019KT M01/M04 A3018 RMK A01 T10141038  RH  084%=      5-min Rain = 0
KBO1 191018Z 34020KT M01/M04 A3018 RMK A01 T10141038  RH  084%=      5-min Rain = 0
KBO1 191019Z 34017KT M01/M04 A3018 RMK A01 T10141038  RH  083%=      5-min Rain = 0
KBO1 191020Z 34018KT M01/M04 A3018 RMK A01 T10141038  RH  083%=      5-min Rain = 0
KBO1 191021Z 34018KT M01/M04 A3018 RMK A01 T10141038  RH  084%=      5-min Rain = 0
KBO1 191022Z 34018KT M01/M04 A3018 RMK A01 T10141038  RH  084%=      5-min Rain = 0
KBO1 191023Z 34019KT M01/M04 A3018 RMK A01 T10141038  RH  083%=      5-min Rain = 0
KBO1 191024Z 34018KT M01/M04 A3018 RMK A01 T10131038  RH  083%=      5-min Rain = 0
KBO1 191025Z 34018KT M01/M04 A3018 RMK A01 T10131038  RH  083%=      5-min Rain = 0
KBO1 191026Z 34017KT M01/M04 A3018 RMK A01 T10121038  RH  083%=      5-min Rain = 0
KBO1 191027Z 34018KT M01/M04 A3018 RMK A01 T10121038  RH  083%=      5-min Rain = 0
KBO1 191028Z 34017KT M01/M04 A3018 RMK A01 T10121038  RH  083%=      5-min Rain = 0
KBO1 191029Z 34018KT M01/M04 A3018 RMK A01 T10121038  RH  083%=      5-min Rain = 0
KBO1 191030Z 34016G22KT M01/M04 A3018 RMK A01 T10121038  RH  083%=      5-min Rain = 0
KBO1 191031Z 34017KT M01/M04 A3018 RMK A01 T10121038  RH  082%=      5-min Rain = 0
KBO1 191032Z 34016KT M01/M04 A3018 RMK A01 T10121039  RH  082%=      5-min Rain = 0
KBO1 191033Z 34017KT M01/M04 A3018 RMK A01 T10121038  RH  082%=      5-min Rain = 0
KBO1 191034Z 33016KT M01/M04 A3018 RMK A01 T10121039  RH  082%=      5-min Rain = 0
KBO1 191035Z 34016KT M01/M04 A3018 RMK A01 T10121039  RH  082%=      5-min Rain = 0
KBO1 191036Z 33017KT M01/M04 A3018 RMK A01 T10121039  RH  082%=      5-min Rain = 0
KBO1 191037Z 33017KT M01/M04 A3018 RMK A01 T10121039  RH  082%=      5-min Rain = 0
KBO1 191038Z 33017KT M01/M04 A3019 RMK A01 T10121039  RH  082%=      5-min Rain = 0
KBO1 191039Z 33016KT M01/M04 A3019 RMK A01 T10121039  RH  082%=      5-min Rain = 0
KBO1 191040Z 33016KT M01/M04 A3019 RMK A01 T10131039  RH  082%=      5-min Rain = 0
KBO1 191041Z 33014KT M01/M04 A3019 RMK A01 T10131039  RH  082%=      5-min Rain = 0
KBO1 191042Z 33015KT M01/M04 A3019 RMK A01 T10131039  RH  083%=      5-min Rain = 0
KBO1 191043Z 33014KT M01/M04 A3019 RMK A01 T10131039  RH  083%=      5-min Rain = 0
KBO1 191044Z 34015KT M01/M04 A3019 RMK A01 T10141039  RH  083%=      5-min Rain = 0
KBO1 191045Z 33017KT M01/M04 A3019 RMK A01 T10141039  RH  083%=      5-min Rain = 0
KBO1 191046Z 33016G21KT M01/M04 A3019 RMK A01 T10141039  RH  083%=      5-min Rain = 0
KBO1 191047Z 34015KT M01/M04 A3019 RMK A01 T10141039  RH  083%=      5-min Rain = 0
KBO1 191048Z 33014KT M01/M04 A3019 RMK A01 T10141039  RH  083%=      5-min Rain = 0
KBO1 191049Z 34015KT M02/M04 A3019 RMK A01 T10151039  RH  084%=      5-min Rain = 0
KBO1 191050Z 33013KT M02/M04 A3019 RMK A01 T10151039  RH  084%=      5-min Rain = 0
KBO1 191051Z 34014KT M02/M04 A3019 RMK A01 T10151039  RH  084%=      5-min Rain = 0
KBO1 191052Z 33015KT M02/M04 A3019 RMK A01 T10161040  RH  084%=      5-min Rain = 0
KBO1 191053Z 33015KT M02/M04 A3019 RMK A01 T10161039  RH  084%=      5-min Rain = 0
KBO1 191054Z 33014KT M02/M04 A3019 RMK A01 T10161039  RH  084%=      5-min Rain = 0
KBO1 191055Z 33015KT M02/M04 A3019 RMK A01 T10161040  RH  084%=      5-min Rain = 0
KBO1 191056Z 33014KT M02/M04 A3019 RMK A01 T10161039  RH  084%=      5-min Rain = 0
KBO1 191057Z 33013KT M02/M04 A3019 RMK A01 T10161039  RH  084%=      5-min Rain = 0
KBO1 191058Z 33015KT M02/M04 A3019 RMK A01 T10161040  RH  084%=      5-min Rain = 0
KBO1 191059Z 33016KT M02/M04 A3019 RMK A01 T10171040  RH  084%=      5-min Rain = 0
KBO1 191100Z 33015KT M02/M04 A3019 RMK A01 T10171040  RH  084%=      5-min Rain = 0
KBO1 191101Z 34015KT M02/M04 A3019 RMK A01 T10161040  RH  084%=      5-min Rain = 0
KBO1 191102Z 33015KT M02/M04 A3019 RMK A01 T10161040  RH  084%=      5-min Rain = 0
KBO1 191103Z 34017KT M02/M04 A3019 RMK A01 T10161040  RH  084%=      5-min Rain = 0
KBO1 191104Z 33015G20KT M02/M04 A3019 RMK A01 T10151039  RH  084%=      5-min Rain = 0
KBO1 191105Z 34016KT M02/M04 A3019 RMK A01 T10151040  RH  084%=      5-min Rain = 0
KBO1 191106Z 34014KT M02/M04 A3019 RMK A01 T10161040  RH  084%=      5-min Rain = 0
KBO1 191107Z 34016KT M02/M04 A3019 RMK A01 T10151040  RH  084%=      5-min Rain = 0
KBO1 191108Z 34015KT M02/M04 A3019 RMK A01 T10161040  RH  084%=      5-min Rain = 0
KBO1 191109Z 34014KT M02/M04 A3019 RMK A01 T10161040  RH  084%=      5-min Rain = 0
KBO1 191110Z 34015KT M02/M04 A3019 RMK A01 T10161041  RH  084%=      5-min Rain = 0
KBO1 191111Z 34015KT M02/M04 A3019 RMK A01 T10171041  RH  084%=      5-min Rain = 0
KBO1 191112Z 34015KT M02/M04 A3019 RMK A01 T10161040  RH  084%=      5-min Rain = 0
KBO1 191113Z 34016KT M02/M04 A3019 RMK A01 T10161040  RH  084%=      5-min Rain = 0
KBO1 191114Z 34014KT M02/M04 A3019 RMK A01 T10161040  RH  084%=      5-min Rain = 0
KBO1 191115Z 34015KT M02/M04 A3019 RMK A01 T10161040  RH  083%=      5-min Rain = 0
KBO1 191116Z 34015KT M02/M04 A3019 RMK A01 T10161040  RH  083%=      5-min Rain = 0
KBO1 191117Z 34016KT M02/M04 A3019 RMK A01 T10161040  RH  083%=      5-min Rain = 0
KBO1 191118Z 34016KT M02/M04 A302 RMK A01 T10151040  RH  083%=      5-min Rain = 0
KBO1 191119Z 34016KT M02/M04 A3019 RMK A01 T10151040  RH  083%=      5-min Rain = 0
KBO1 191120Z 34016KT M02/M04 A3019 RMK A01 T10151040  RH  083%=      5-min Rain = 0
KBO1 191121Z 34017KT M01/M04 A3019 RMK A01 T10141040  RH  083%=      5-min Rain = 0
KBO1 191122Z 34017KT M01/M04 A3019 RMK A01 T10131040  RH  082%=      5-min Rain = 0
KBO1 191123Z 33019KT M01/M04 A3019 RMK A01 T10131040  RH  082%=      5-min Rain = 0
KBO1 191124Z 34019KT M01/M04 A3019 RMK A01 T10121040  RH  082%=      5-min Rain = 0
KBO1 191125Z 34017KT M01/M04 A3019 RMK A01 T10121040  RH  081%=      5-min Rain = 0
KBO1 191126Z 33017G22KT M01/M04 A3019 RMK A01 T10121040  RH  081%=      5-min Rain = 0
KBO1 191127Z 33019KT M01/M04 A3019 RMK A01 T10131041  RH  081%=      5-min Rain = 0
KBO1 191128Z 33020KT M01/M04 A3019 RMK A01 T10121040  RH  081%=      5-min Rain = 0
KBO1 191129Z 33019KT M01/M04 A3019 RMK A01 T10111040  RH  081%=      5-min Rain = 0
KBO1 191130Z 33018KT M01/M04 A3019 RMK A01 T10101040  RH  080%=      5-min Rain = 0
KBO1 191131Z 33018KT M01/M04 A3019 RMK A01 T10101040  RH  080%=      5-min Rain = 0
KBO1 191132Z 33018KT M01/M04 A3019 RMK A01 T10111040  RH  080%=      5-min Rain = 0
KBO1 191133Z 33017KT M01/M04 A3019 RMK A01 T10111041  RH  081%=      5-min Rain = 0
KBO1 191134Z 33016KT M01/M04 A3019 RMK A01 T10121041  RH  081%=      5-min Rain = 0
KBO1 191135Z 33014KT M01/M04 A3019 RMK A01 T10121041  RH  081%=      5-min Rain = 0
KBO1 191136Z 33014KT M01/M04 A302 RMK A01 T10131041  RH  081%=      5-min Rain = 0
KBO1 191137Z 33015KT M01/M04 A302 RMK A01 T10141041  RH  082%=      5-min Rain = 0
KBO1 191138Z 32016G21KT M01/M04 A302 RMK A01 T10141041  RH  082%=      5-min Rain = 0
KBO1 191139Z 33017KT M01/M04 A3019 RMK A01 T10141041  RH  082%=      5-min Rain = 0
KBO1 191140Z 33016G21KT M01/M04 A302 RMK A01 T10131041  RH  081%=      5-min Rain = 0
KBO1 191141Z 33016KT M01/M04 A302 RMK A01 T10131041  RH  081%=      5-min Rain = 0
KBO1 191142Z 33016KT M01/M04 A302 RMK A01 T10131041  RH  081%=      5-min Rain = 0
KBO1 191143Z 33016KT M01/M04 A302 RMK A01 T10141041  RH  081%=      5-min Rain = 0
KBO1 191144Z 33018KT M01/M04 A302 RMK A01 T10141041  RH  082%=      5-min Rain = 0
KBO1 191145Z 33019G24KT M01/M04 A302 RMK A01 T10131042  RH  081%=      5-min Rain = 0
KBO1 191146Z 33019KT M01/M04 A302 RMK A01 T10121041  RH  081%=      5-min Rain = 0
KBO1 191147Z 34018KT M01/M04 A302 RMK A01 T10111041  RH  080%=      5-min Rain = 0
KBO1 191148Z 34017KT M01/M04 A302 RMK A01 T10121042  RH  080%=      5-min Rain = 0
KBO1 191149Z 34017KT M01/M04 A302 RMK A01 T10131042  RH  080%=      5-min Rain = 0
KBO1 191150Z 34018KT M01/M04 A302 RMK A01 T10131042  RH  081%=      5-min Rain = 0
KBO1 191151Z 34017KT M01/M04 A302 RMK A01 T10141042  RH  081%=      5-min Rain = 0
KBO1 191152Z 34017KT M01/M04 A302 RMK A01 T10141042  RH  081%=      5-min Rain = 0
KBO1 191153Z 34015KT M02/M04 A302 RMK A01 T10151043  RH  081%=      5-min Rain = 0
KBO1 191154Z 34017KT M02/M04 A302 RMK A01 T10161043  RH  082%=      5-min Rain = 0
KBO1 191155Z 34017KT M02/M04 A302 RMK A01 T10161043  RH  082%=      5-min Rain = 0
KBO1 191156Z 34016KT M02/M04 A302 RMK A01 T10151042  RH  082%=      5-min Rain = 0
KBO1 191157Z 34017KT M02/M04 A302 RMK A01 T10151042  RH  081%=      5-min Rain = 0
KBO1 191158Z 34015KT M02/M04 A3021 RMK A01 T10151042  RH  081%=      5-min Rain = 0
KBO1 191159Z 34016KT M02/M04 A3021 RMK A01 T10151042  RH  081%=      5-min Rain = 0
KBO1 191200Z 34017KT M02/M04 A3021 RMK A01 T10151042  RH  082%=      5-min Rain = 0
KBO1 191201Z 34016KT M02/M04 A3021 RMK A01 T10151042  RH  081%=      5-min Rain = 0
KBO1 191202Z 34015KT M01/M04 A3021 RMK A01 T10141042  RH  081%=      5-min Rain = 0
KBO1 191203Z 34016KT M01/M04 A3021 RMK A01 T10141042  RH  081%=      5-min Rain = 0
KBO1 191204Z 34017KT M02/M04 A3021 RMK A01 T10151042  RH  082%=      5-min Rain = 0
KBO1 191205Z 34016KT M01/M04 A3021 RMK A01 T10141042  RH  081%=      5-min Rain = 0
KBO1 191206Z 34016KT M01/M04 A3021 RMK A01 T10141042  RH  081%=      5-min Rain = 0
KBO1 191207Z 34015KT M01/M04 A3021 RMK A01 T10141042  RH  081%=      5-min Rain = 0
KBO1 191208Z 33015KT M01/M04 A3021 RMK A01 T10141042  RH  081%=      5-min Rain = 0
KBO1 191209Z 33015KT M01/M04 A3021 RMK A01 T10141042  RH  081%=      5-min Rain = 0
KBO1 191210Z 33016KT M01/M04 A3021 RMK A01 T10141042  RH  082%=      5-min Rain = 0
KBO1 191211Z 34016KT M01/M04 A3021 RMK A01 T10141042  RH  081%=      5-min Rain = 0
KBO1 191212Z 34016KT M01/M04 A3021 RMK A01 T10131042  RH  081%=      5-min Rain = 0
KBO1 191213Z 33016KT M01/M04 A3021 RMK A01 T10131042  RH  081%=      5-min Rain = 0
KBO1 191214Z 34017KT M01/M04 A3021 RMK A01 T10131042  RH  081%=      5-min Rain = 0
KBO1 191215Z 34017KT M01/M04 A3021 RMK A01 T10131042  RH  081%=      5-min Rain = 0
KBO1 191216Z 33017KT M01/M04 A3021 RMK A01 T10121042  RH  080%=      5-min Rain = 0
KBO1 191217Z 34017KT M01/M04 A3021 RMK A01 T10121042  RH  080%=      5-min Rain = 0
KBO1 191218Z 33017KT M01/M04 A3021 RMK A01 T10121042  RH  080%=      5-min Rain = 0
KBO1 191219Z 33016KT M01/M04 A3021 RMK A01 T10131042  RH  080%=      5-min Rain = 0
KBO1 191220Z 33017KT M01/M04 A3021 RMK A01 T10131043  RH  081%=      5-min Rain = 0
KBO1 191221Z 33017KT M01/M04 A3021 RMK A01 T10141043  RH  081%=      5-min Rain = 0
KBO1 191222Z 33016KT M01/M04 A3021 RMK A01 T10141043  RH  081%=      5-min Rain = 0
KBO1 191223Z 33016KT M02/M04 A3021 RMK A01 T10151043  RH  081%=      5-min Rain = 0
KBO1 191224Z 33016KT M02/M04 A3021 RMK A01 T10151043  RH  081%=      5-min Rain = 0
KBO1 191225Z 33014KT M02/M04 A3022 RMK A01 T10161043  RH  082%=      5-min Rain = 0
KBO1 191226Z 33015KT M02/M04 A3022 RMK A01 T10161043  RH  082%=      5-min Rain = 0
KBO1 191227Z 33015KT M02/M04 A3022 RMK A01 T10171044  RH  082%=      5-min Rain = 0
KBO1 191228Z 33016KT M02/M04 A3022 RMK A01 T10171044  RH  082%=      5-min Rain = 0
KBO1 191229Z 33015KT M02/M04 A3022 RMK A01 T10171044  RH  082%=      5-min Rain = 0
KBO1 191230Z 33015KT M02/M04 A3022 RMK A01 T10171044  RH  082%=      5-min Rain = 0
KBO1 191231Z 33015KT M02/M04 A3022 RMK A01 T10171044  RH  082%=      5-min Rain = 0
KBO1 191232Z 33014KT M02/M04 A3022 RMK A01 T10171044  RH  082%=      5-min Rain = 0
KBO1 191233Z 33014KT M02/M04 A3022 RMK A01 T10181044  RH  082%=      5-min Rain = 0
KBO1 191234Z 33016KT M02/M04 A3022 RMK A01 T10181044  RH  082%=      5-min Rain = 0
KBO1 191235Z 33015KT M02/M05 A3022 RMK A01 T10181045  RH  082%=      5-min Rain = 0
KBO1 191236Z 33014KT M02/M05 A3022 RMK A01 T10181045  RH  082%=      5-min Rain = 0
KBO1 191237Z 33015KT M02/M05 A3022 RMK A01 T10191045  RH  082%=      5-min Rain = 0
KBO1 191238Z 33015KT M02/M05 A3022 RMK A01 T10191045  RH  082%=      5-min Rain = 0
KBO1 191239Z 33014KT M02/M05 A3022 RMK A01 T10191045  RH  082%=      5-min Rain = 0
KBO1 191240Z 33014KT M02/M05 A3022 RMK A01 T10191045  RH  082%=      5-min Rain = 0
KBO1 191241Z 33014KT M02/M05 A3022 RMK A01 T10201046  RH  083%=      5-min Rain = 0
KBO1 191242Z 33014KT M02/M05 A3022 RMK A01 T10211046  RH  083%=      5-min Rain = 0
KBO1 191243Z 33014KT M02/M05 A3022 RMK A01 T10211046  RH  083%=      5-min Rain = 0
KBO1 191244Z 33012KT M02/M05 A3023 RMK A01 T10211046  RH  083%=      5-min Rain = 0
KBO1 191245Z 33012KT M02/M05 A3023 RMK A01 T10221046  RH  083%=      5-min Rain = 0
KBO1 191246Z 33013KT M02/M05 A3023 RMK A01 T10231047  RH  084%=      5-min Rain = 0
KBO1 191247Z 33012KT M02/M05 A3023 RMK A01 T10231047  RH  084%=      5-min Rain = 0
KBO1 191248Z 33013KT M02/M05 A3023 RMK A01 T10241047  RH  084%=      5-min Rain = 0
KBO1 191249Z 33013KT M03/M05 A3023 RMK A01 T10251047  RH  084%=      5-min Rain = 0
KBO1 191250Z 33013KT M03/M05 A3023 RMK A01 T10251048  RH  085%=      5-min Rain = 0
KBO1 191251Z 33013KT M03/M05 A3023 RMK A01 T10251048  RH  085%=      5-min Rain = 0
KBO1 191252Z 33013KT M03/M05 A3023 RMK A01 T10251048  RH  085%=      5-min Rain = 0
KBO1 191253Z 33013KT M03/M05 A3023 RMK A01 T10251048  RH  084%=      5-min Rain = 0
KBO1 191254Z 33013KT M03/M05 A3023 RMK A01 T10251048  RH  084%=      5-min Rain = 0
KBO1 191255Z 33013KT M03/M05 A3023 RMK A01 T10251048  RH  084%=      5-min Rain = 0
KBO1 191256Z 33012KT M03/M05 A3023 RMK A01 T10251048  RH  084%=      5-min Rain = 0
KBO1 191257Z 33012KT M03/M05 A3023 RMK A01 T10261049  RH  084%=      5-min Rain = 0
KBO1 191258Z 33012KT M03/M05 A3023 RMK A01 T10261049  RH  084%=      5-min Rain = 0
KBO1 191259Z 33012KT M03/M05 A3023 RMK A01 T10261049  RH  084%=      5-min Rain = 0
KBO1 191300Z 33012KT M03/M05 A3023 RMK A01 T10261049  RH  084%=      5-min Rain = 0
KBO1 191301Z 33012KT M03/M05 A3023 RMK A01 T10271049  RH  084%=      5-min Rain = 0
KBO1 191302Z 33012KT M03/M05 A3024 RMK A01 T10271049  RH  084%=      5-min Rain = 0
KBO1 191303Z 33012KT M03/M05 A3024 RMK A01 T10271050  RH  084%=      5-min Rain = 0
KBO1 191304Z 34012KT M03/M05 A3024 RMK A01 T10271050  RH  084%=      5-min Rain = 0
KBO1 191305Z 34012KT M03/M05 A3024 RMK A01 T10281051  RH  084%=      5-min Rain = 0
KBO1 191306Z 34012KT M03/M05 A3024 RMK A01 T10291051  RH  085%=      5-min Rain = 0
KBO1 191307Z 34012KT M03/M05 A3024 RMK A01 T10291051  RH  085%=      5-min Rain = 0
KBO1 191308Z 34012KT M03/M05 A3024 RMK A01 T10291051  RH  085%=      5-min Rain = 0
KBO1 191309Z 33012KT M03/M05 A3024 RMK A01 T10281050  RH  085%=      5-min Rain = 0
KBO1 191310Z 33012KT M03/M05 A3024 RMK A01 T10281051  RH  085%=      5-min Rain = 0
KBO1 191311Z 34012KT M03/M05 A3024 RMK A01 T10281051  RH  084%=      5-min Rain = 0
KBO1 191312Z 34012KT M03/M05 A3024 RMK A01 T10281051  RH  084%=      5-min Rain = 0
KBO1 191313Z 34012KT M03/M05 A3024 RMK A01 T10281051  RH  084%=      5-min Rain = 0
KBO1 191314Z 33012KT M03/M05 A3024 RMK A01 T10281051  RH  084%=      5-min Rain = 0
KBO1 191315Z 33012KT M03/M05 A3024 RMK A01 T10291051  RH  084%=      5-min Rain = 0
KBO1 191316Z 33012KT M03/M05 A3024 RMK A01 T10291051  RH  084%=      5-min Rain = 0
KBO1 191317Z 34011KT M03/M05 A3024 RMK A01 T10291051  RH  084%=      5-min Rain = 0
KBO1 191318Z 34012KT M03/M05 A3024 RMK A01 T10291051  RH  084%=      5-min Rain = 0
KBO1 191319Z 34011KT M03/M05 A3024 RMK A01 T10291051  RH  084%=      5-min Rain = 0
KBO1 191320Z 34011KT M03/M05 A3024 RMK A01 T10291051  RH  085%=      5-min Rain = 0
KBO1 191321Z 34011KT M03/M05 A3024 RMK A01 T10291052  RH  085%=      5-min Rain = 0
KBO1 191322Z 33011KT M03/M05 A3024 RMK A01 T10291052  RH  085%=      5-min Rain = 0
KBO1 191323Z 34011KT M03/M05 A3025 RMK A01 T10301052  RH  085%=      5-min Rain = 0
KBO1 191324Z 34011KT M03/M05 A3025 RMK A01 T10301052  RH  085%=      5-min Rain = 0
KBO1 191325Z 34012KT M03/M05 A3025 RMK A01 T10301053  RH  085%=      5-min Rain = 0
KBO1 191326Z 34011KT M03/M05 A3025 RMK A01 T10311053  RH  085%=      5-min Rain = 0
KBO1 191327Z 34011KT M03/M05 A3025 RMK A01 T10311053  RH  085%=      5-min Rain = 0
KBO1 191328Z 34012KT M03/M05 A3025 RMK A01 T10311053  RH  085%=      5-min Rain = 0
KBO1 191329Z 34012KT M03/M05 A3025 RMK A01 T10311053  RH  085%=      5-min Rain = 0
KBO1 191330Z 34011KT M03/M05 A3025 RMK A01 T10311053  RH  085%=      5-min Rain = 0
KBO1 191331Z 34011KT M03/M05 A3025 RMK A01 T10321053  RH  085%=      5-min Rain = 0
KBO1 191332Z 34011KT M03/M05 A3025 RMK A01 T10321054  RH  085%=      5-min Rain = 0
KBO1 191333Z 34011KT M03/M05 A3025 RMK A01 T10321054  RH  085%=      5-min Rain = 0
KBO1 191334Z 33011KT M03/M05 A3025 RMK A01 T10321054  RH  085%=      5-min Rain = 0
KBO1 191335Z 33011KT M03/M06 A3025 RMK A01 T10331055  RH  085%=      5-min Rain = 0
KBO1 191336Z 33011KT M03/M06 A3025 RMK A01 T10331055  RH  085%=      5-min Rain = 0
KBO1 191337Z 33010KT M03/M06 A3025 RMK A01 T10341056  RH  085%=      5-min Rain = 0
KBO1 191338Z 33010KT M03/M06 A3025 RMK A01 T10341055  RH  085%=      5-min Rain = 0
KBO1 191339Z 33010KT M03/M06 A3025 RMK A01 T10341055  RH  086%=      5-min Rain = 0
KBO1 191340Z 33010KT M04/M06 A3026 RMK A01 T10351055  RH  086%=      5-min Rain = 0
KBO1 191341Z 33011KT M04/M06 A3026 RMK A01 T10351056  RH  086%=      5-min Rain = 0
KBO1 191342Z 33010KT M04/M06 A3026 RMK A01 T10351055  RH  086%=      5-min Rain = 0
KBO1 191343Z 33010KT M04/M06 A3026 RMK A01 T10351055  RH  086%=      5-min Rain = 0
KBO1 191344Z 33011KT M04/M06 A3026 RMK A01 T10351056  RH  086%=      5-min Rain = 0
KBO1 191345Z 33011KT M04/M06 A3026 RMK A01 T10351056  RH  086%=      5-min Rain = 0
KBO1 191346Z 33010KT M04/M06 A3026 RMK A01 T10361056  RH  086%=      5-min Rain = 0
KBO1 191347Z 33010KT M04/M06 A3026 RMK A01 T10361056  RH  086%=      5-min Rain = 0
KBO1 191348Z 33010KT M04/M06 A3026 RMK A01 T10361056  RH  086%=      5-min Rain = 0
KBO1 191349Z 33010KT M04/M06 A3026 RMK A01 T10371057  RH  086%=      5-min Rain = 0
KBO1 191350Z 33010KT M04/M06 A3026 RMK A01 T10371057  RH  086%=      5-min Rain = 0
KBO1 191351Z 33010KT M04/M06 A3026 RMK A01 T10381057  RH  086%=      5-min Rain = 0
KBO1 191352Z 33010KT M04/M06 A3026 RMK A01 T10381057  RH  087%=      5-min Rain = 0
KBO1 191353Z 33010KT M04/M06 A3026 RMK A01 T10381057  RH  087%=      5-min Rain = 0
KBO1 191354Z 33010KT M04/M06 A3026 RMK A01 T10381057  RH  087%=      5-min Rain = 0
KBO1 191355Z 33010KT M04/M06 A3026 RMK A01 T10391057  RH  087%=      5-min Rain = 0
KBO1 191356Z 33009KT M04/M06 A3026 RMK A01 T10381057  RH  087%=      5-min Rain = 0
KBO1 191357Z 33010KT M04/M06 A3026 RMK A01 T10391058  RH  087%=      5-min Rain = 0
KBO1 191358Z 33010KT M04/M06 A3026 RMK A01 T10391058  RH  087%=      5-min Rain = 0
KBO1 191359Z 33010KT M04/M06 A3026 RMK A01 T10391058  RH  087%=      5-min Rain = 0
KBO1 191400Z 33010KT M04/M06 A3026 RMK A01 T10391058  RH  087%=      5-min Rain = 0
KBO1 191401Z 33009KT M04/M06 A3026 RMK A01 T10391058  RH  087%=      5-min Rain = 0
KBO1 191402Z 33009KT M04/M06 A3026 RMK A01 T10381057  RH  087%=      5-min Rain = 0
KBO1 191403Z 33010KT M04/M06 A3027 RMK A01 T10381058  RH  086%=      5-min Rain = 0
KBO1 191404Z 33010KT M04/M06 A3027 RMK A01 T10391058  RH  086%=      5-min Rain = 0
KBO1 191405Z 33010KT M04/M06 A3027 RMK A01 T10381058  RH  086%=      5-min Rain = 0
KBO1 191406Z 33009KT M04/M06 A3027 RMK A01 T10381058  RH  086%=      5-min Rain = 0
KBO1 191407Z 33009KT M04/M06 A3027 RMK A01 T10391059  RH  086%=      5-min Rain = 0
KBO1 191408Z 33009KT M04/M06 A3027 RMK A01 T10381058  RH  086%=      5-min Rain = 0
KBO1 191409Z 33009KT M04/M06 A3027 RMK A01 T10391059  RH  086%=      5-min Rain = 0
KBO1 191410Z 33009KT M04/M06 A3027 RMK A01 T10381059  RH  086%=      5-min Rain = 0
KBO1 191411Z 33009KT M04/M06 A3027 RMK A01 T10381059  RH  086%=      5-min Rain = 0
KBO1 191412Z 32008KT M04/M06 A3027 RMK A01 T10381059  RH  086%=      5-min Rain = 0
KBO1 191413Z 32008KT M04/M06 A3027 RMK A01 T10381059  RH  085%=      5-min Rain = 0
KBO1 191414Z 32009KT M04/M06 A3027 RMK A01 T10391060  RH  085%=      5-min Rain = 0
KBO1 191415Z 32009KT M04/M06 A3027 RMK A01 T10391060  RH  085%=      5-min Rain = 0
KBO1 191416Z 32009KT M04/M06 A3027 RMK A01 T10391060  RH  085%=      5-min Rain = 0
KBO1 191417Z 32009KT M04/M06 A3027 RMK A01 T10391060  RH  085%=      5-min Rain = 0
KBO1 191418Z 32008KT M04/M06 A3027 RMK A01 T10391060  RH  085%=      5-min Rain = 0
KBO1 191419Z 32008KT M04/M06 A3028 RMK A01 T10391060  RH  085%=      5-min Rain = 0
KBO1 191420Z 32009KT M04/M06 A3028 RMK A01 T10391061  RH  085%=      5-min Rain = 0
KBO1 191421Z 31008KT M04/M06 A3028 RMK A01 T10391060  RH  085%=      5-min Rain = 0
KBO1 191422Z 31008KT M04/M06 A3028 RMK A01 T10391060  RH  086%=      5-min Rain = 0
KBO1 191423Z 31008KT M04/M06 A3028 RMK A01 T10391060  RH  086%=      5-min Rain = 0
KBO1 191424Z 31008KT M04/M06 A3028 RMK A01 T10391060  RH  086%=      5-min Rain = 0
KBO1 191425Z 30008KT M04/M06 A3028 RMK A01 T10401061  RH  085%=      5-min Rain = 0
KBO1 191426Z 30008KT M04/M06 A3028 RMK A01 T10401061  RH  085%=      5-min Rain = 0
KBO1 191427Z 30008KT M04/M06 A3028 RMK A01 T10401061  RH  086%=      5-min Rain = 0
KBO1 191428Z 30007KT M04/M06 A3028 RMK A01 T10411061  RH  086%=      5-min Rain = 0
KBO1 191429Z 30007KT M04/M06 A3029 RMK A01 T10411061  RH  086%=      5-min Rain = 0
KBO1 191430Z 29007KT M04/M06 A3029 RMK A01 T10411061  RH  086%=      5-min Rain = 0
KBO1 191431Z 29007KT M04/M06 A3029 RMK A01 T10411061  RH  086%=      5-min Rain = 0
KBO1 191432Z 29007KT M04/M06 A3029 RMK A01 T10421061  RH  086%=      5-min Rain = 0
KBO1 191433Z 30007KT M04/M06 A3029 RMK A01 T10421061  RH  087%=      5-min Rain = 0
KBO1 191434Z 30007KT M04/M06 A3029 RMK A01 T10421061  RH  087%=      5-min Rain = 0
KBO1 191435Z 30006KT M04/M06 A3029 RMK A01 T10411060  RH  087%=      5-min Rain = 0
KBO1 191436Z 30006KT M04/M06 A3029 RMK A01 T10401059  RH  087%=      5-min Rain = 0
KBO1 191437Z 30006KT M04/M06 A3029 RMK A01 T10401059  RH  087%=      5-min Rain = 0
KBO1 191438Z 29007KT M04/M06 A3029 RMK A01 T10391058  RH  087%=      5-min Rain = 0
KBO1 191439Z 29007KT M04/M06 A3029 RMK A01 T10391058  RH  086%=      5-min Rain = 0
KBO1 191440Z 28007KT M04/M06 A3029 RMK A01 T10381058  RH  086%=      5-min Rain = 0
KBO1 191441Z 28007KT M04/M06 A3029 RMK A01 T10381058  RH  086%=      5-min Rain = 0
KBO1 191442Z 28007KT M04/M06 A3029 RMK A01 T10381058  RH  086%=      5-min Rain = 0
KBO1 191443Z 28007KT M04/M06 A3029 RMK A01 T10381058  RH  086%=      5-min Rain = 0
KBO1 191444Z 27007KT M04/M06 A3029 RMK A01 T10371057  RH  086%=      5-min Rain = 0
KBO1 191445Z 27007KT M04/M06 A3029 RMK A01 T10371057  RH  086%=      5-min Rain = 0
KBO1 191446Z 27007KT M04/M06 A3029 RMK A01 T10371057  RH  086%=      5-min Rain = 0
KBO1 191447Z 27007KT M04/M06 A3029 RMK A01 T10371057  RH  086%=      5-min Rain = 0
KBO1 191448Z 26007KT M04/M06 A3029 RMK A01 T10361056  RH  086%=      5-min Rain = 0
KBO1 191449Z 26007KT M04/M06 A3029 RMK A01 T10361056  RH  086%=      5-min Rain = 0
KBO1 191450Z 26008KT M04/M06 A3029 RMK A01 T10361056  RH  086%=      5-min Rain = 0
KBO1 191451Z 26008KT M04/M06 A3029 RMK A01 T10361056  RH  086%=      5-min Rain = 0
KBO1 191452Z 26008KT M04/M06 A303 RMK A01 T10351056  RH  086%=      5-min Rain = 0
KBO1 191453Z 26007KT M03/M06 A303 RMK A01 T10341055  RH  086%=      5-min Rain = 0
KBO1 191454Z 26008KT M03/M05 A303 RMK A01 T10331054  RH  086%=      5-min Rain = 0
KBO1 191455Z 26007KT M03/M05 A303 RMK A01 T10321052  RH  086%=      5-min Rain = 0
KBO1 191456Z 27008KT M03/M05 A303 RMK A01 T10301051  RH  085%=      5-min Rain = 0
KBO1 191457Z 27008KT M03/M05 A303 RMK A01 T10271049  RH  085%=      5-min Rain = 0
KBO1 191458Z 27008KT M02/M05 A303 RMK A01 T10231047  RH  084%=      5-min Rain = 0
KBO1 191459Z 27008KT M02/M05 A303 RMK A01 T10211046  RH  083%=      5-min Rain = 0
KBO1 191500Z 27008KT M02/M05 A303 RMK A01 T10181045  RH  082%=      5-min Rain = 0
KBO1 191501Z 27008KT M02/M05 A303 RMK A01 T10171045  RH  081%=      5-min Rain = 0
KBO1 191502Z 27008KT M02/M05 A303 RMK A01 T10161045  RH  080%=      5-min Rain = 0
KBO1 191503Z 27009KT M01/M05 A303 RMK A01 T10141045  RH  080%=      5-min Rain = 0
KBO1 191504Z 28009KT M01/M04 A303 RMK A01 T10131044  RH  079%=      5-min Rain = 0
KBO1 191505Z 28009KT M01/M04 A303 RMK A01 T10111044  RH  079%=      5-min Rain = 0
KBO1 191506Z 28007KT M01/M04 A303 RMK A01 T10111043  RH  079%=      5-min Rain = 0
KBO1 191507Z 28008KT M01/M04 A303 RMK A01 T10101043  RH  079%=      5-min Rain = 0
KBO1 191508Z 28007KT M01/M04 A303 RMK A01 T10101043  RH  078%=      5-min Rain = 0
KBO1 191509Z 28007KT M01/M04 A303 RMK A01 T10091042  RH  078%=      5-min Rain = 0
KBO1 191510Z 28008KT M01/M04 A303 RMK A01 T10091041  RH  078%=      5-min Rain = 0
KBO1 191511Z 28007KT M01/M04 A303 RMK A01 T10081041  RH  078%=      5-min Rain = 0
KBO1 191512Z 28007KT M01/M04 A303 RMK A01 T10071040  RH  078%=      5-min Rain = 0
KBO1 191513Z 28008KT M01/M04 A303 RMK A01 T10061040  RH  078%=      5-min Rain = 0
KBO1 191514Z 28008KT M01/M04 A303 RMK A01 T10051040  RH  077%=      5-min Rain = 0
KBO1 191515Z 29009KT M00/M04 A303 RMK A01 T10031040  RH  076%=      5-min Rain = 0
KBO1 191516Z 28009KT M00/M04 A303 RMK A01 T10031040  RH  076%=      5-min Rain = 0
KBO1 191517Z 28008KT M00/M04 A303 RMK A01 T10021040  RH  075%=      5-min Rain = 0
KBO1 191518Z 29008KT M00/M04 A303 RMK A01 T10011038  RH  076%=      5-min Rain = 0
KBO1 191519Z 29008KT M00/M04 A303 RMK A01 T10011038  RH  076%=      5-min Rain = 0
KBO1 191520Z 29009KT 00/04 A303 RMK A01 T00000-38  RH  075%=      5-min Rain = 0
KBO1 191521Z 29008KT 00/M04 A303 RMK A01 T00011038  RH  075%=      5-min Rain = 0
KBO1 191522Z 29008KT 00/M04 A303 RMK A01 T00021037  RH  075%=      5-min Rain = 0
KBO1 191523Z 28009KT 00/M04 A303 RMK A01 T00021037  RH  076%=      5-min Rain = 0
KBO1 191524Z 28008KT 00/M04 A3031 RMK A01 T00021036  RH  075%=      5-min Rain = 0
KBO1 191525Z 29008KT 00/M04 A3031 RMK A01 T00031036  RH  075%=      5-min Rain = 0
KBO1 191526Z 29008KT 00/M04 A3031 RMK A01 T00031036  RH  075%=      5-min Rain = 0
KBO1 191527Z 29008KT 00/M04 A3031 RMK A01 T00031036  RH  075%=      5-min Rain = 0
KBO1 191528Z 29009KT 00/M04 A3031 RMK A01 T00041036  RH  075%=      5-min Rain = 0
KBO1 191529Z 28008KT 00/M04 A3031 RMK A01 T00041035  RH  075%=      5-min Rain = 0
KBO1 191530Z 29007KT 01/M03 A3031 RMK A01 T00051034  RH  075%=      5-min Rain = 0
KBO1 191531Z 29008KT 01/M03 A3031 RMK A01 T00051033  RH  075%=      5-min Rain = 0
KBO1 191532Z 29007KT 01/M03 A3031 RMK A01 T00051034  RH  075%=      5-min Rain = 0
KBO1 191533Z 29008KT 01/M03 A3031 RMK A01 T00051033  RH  075%=      5-min Rain = 0
KBO1 191534Z 28008KT 01/M03 A3031 RMK A01 T00061033  RH  075%=      5-min Rain = 0
KBO1 191535Z 29009KT 01/M03 A3031 RMK A01 T00071033  RH  075%=      5-min Rain = 0
KBO1 191536Z 28008KT 01/M03 A3031 RMK A01 T00071034  RH  074%=      5-min Rain = 0.02
KBO1 191537Z 28008KT 01/M03 A3031 RMK A01 T00071033  RH  074%=      5-min Rain = 0
KBO1 191538Z 28008KT 01/M03 A3031 RMK A01 T00081032  RH  075%=      5-min Rain = 0
KBO1 191539Z 29008KT 01/M03 A3031 RMK A01 T00081032  RH  075%=      5-min Rain = 0
KBO1 191540Z 29007KT 01/M03 A3031 RMK A01 T00081031  RH  075%=      5-min Rain = 0
KBO1 191541Z 29007KT 01/M03 A3031 RMK A01 T00081030  RH  076%=      5-min Rain = 0
KBO1 191542Z 29007KT 01/M03 A3031 RMK A01 T00091029  RH  076%=      5-min Rain = 0
KBO1 191543Z 29007KT 01/M03 A3031 RMK A01 T00091029  RH  076%=      5-min Rain = 0
KBO1 191544Z 28007KT 01/M03 A3031 RMK A01 T00091029  RH  075%=      5-min Rain = 0
KBO1 191545Z 28007KT 01/M03 A3031 RMK A01 T00101030  RH  075%=      5-min Rain = 0.01
KBO1 191546Z 29007KT 01/M03 A3031 RMK A01 T00101031  RH  074%=      5-min Rain = 0
KBO1 191547Z 29006KT 01/M03 A3031 RMK A01 T00101029  RH  075%=      5-min Rain = 0
KBO1 191548Z 29007KT 01/M03 A3032 RMK A01 T00111027  RH  075%=      5-min Rain = 0
KBO1 191549Z 29007KT 01/M03 A3032 RMK A01 T00111026  RH  076%=      5-min Rain = 0
KBO1 191550Z 29007KT 01/M03 A3032 RMK A01 T00111027  RH  076%=      5-min Rain = 0
KBO1 191551Z 29007KT 01/M03 A3032 RMK A01 T00121027  RH  076%=      5-min Rain = 0
KBO1 191552Z 29007KT 01/M03 A3032 RMK A01 T00121028  RH  075%=      5-min Rain = 0
KBO1 191553Z 29007KT 01/M03 A3032 RMK A01 T00121027  RH  075%=      5-min Rain = 0
KBO1 191554Z 29006KT 01/M03 A3032 RMK A01 T00131027  RH  075%=      5-min Rain = 0
KBO1 191555Z 28007KT 01/M03 A3032 RMK A01 T00131026  RH  075%=      5-min Rain = 0
KBO1 191556Z 29006KT 01/M03 A3032 RMK A01 T00131027  RH  075%=      5-min Rain = 0
KBO1 191557Z 28007KT 01/M03 A3032 RMK A01 T00131026  RH  075%=      5-min Rain = 0
KBO1 191558Z 29007KT 01/M03 A3032 RMK A01 T00141026  RH  075%=      5-min Rain = 0
KBO1 191559Z 28006KT 01/M03 A3032 RMK A01 T00141026  RH  074%=      5-min Rain = 0
KBO1 191600Z 28006KT 02/M03 A3032 RMK A01 T00151027  RH  074%=      5-min Rain = 0
KBO1 191601Z 28007KT 02/M03 A3032 RMK A01 T00151027  RH  074%=      5-min Rain = 0
KBO1 191602Z 28006KT 02/M03 A3032 RMK A01 T00151026  RH  074%=      5-min Rain = 0
KBO1 191603Z 28005KT 02/M03 A3032 RMK A01 T00151025  RH  075%=      5-min Rain = 0
KBO1 191604Z 28006KT 02/M02 A3032 RMK A01 T00161024  RH  075%=      5-min Rain = 0
KBO1 191605Z 28006KT 02/M02 A3032 RMK A01 T00161024  RH  075%=      5-min Rain = 0
KBO1 191606Z 27006KT 02/M02 A3032 RMK A01 T00161024  RH  074%=      5-min Rain = 0
KBO1 191607Z 28005KT 02/M02 A3032 RMK A01 T00171024  RH  074%=      5-min Rain = 0
KBO1 191608Z 27005KT 02/M02 A3032 RMK A01 T00171022  RH  075%=      5-min Rain = 0
KBO1 191609Z 27005KT 02/M02 A3032 RMK A01 T00171023  RH  075%=      5-min Rain = 0
KBO1 191610Z 27005KT 02/M02 A3032 RMK A01 T00171023  RH  074%=      5-min Rain = 0
KBO1 191611Z 27005KT 02/M02 A3032 RMK A01 T00181023  RH  075%=      5-min Rain = 0
KBO1 191612Z 27005KT 02/M02 A3032 RMK A01 T00181021  RH  075%=      5-min Rain = 0
KBO1 191613Z 27005KT 02/M02 A3032 RMK A01 T00191021  RH  075%=      5-min Rain = 0
KBO1 191614Z 27005KT 02/M02 A3032 RMK A01 T00191021  RH  075%=      5-min Rain = 0
KBO1 191615Z 28004KT 02/M02 A3032 RMK A01 T00191021  RH  075%=      5-min Rain = 0
KBO1 191616Z 28005KT 02/M02 A3032 RMK A01 T00191019  RH  076%=      5-min Rain = 0
KBO1 191617Z 28004KT 02/M02 A3032 RMK A01 T00201019  RH  075%=      5-min Rain = 0
KBO1 191618Z 28004KT 02/M02 A3032 RMK A01 T00201018  RH  076%=      5-min Rain = 0
KBO1 191619Z 27005KT 02/M02 A3032 RMK A01 T00211017  RH  076%=      5-min Rain = 0
KBO1 191620Z 27005KT 02/M02 A3032 RMK A01 T00211019  RH  075%=      5-min Rain = 0
KBO1 191621Z 28005KT 02/M02 A3033 RMK A01 T00211020  RH  074%=      5-min Rain = 0
KBO1 191622Z 27005KT 02/M02 A3033 RMK A01 T00211021  RH  073%=      5-min Rain = 0
KBO1 191623Z 28005KT 02/M02 A3033 RMK A01 T00221021  RH  073%=      5-min Rain = 0
KBO1 191624Z 28004KT 02/M02 A3033 RMK A01 T00221019  RH  074%=      5-min Rain = 0
KBO1 191625Z 28004KT 02/M02 A3033 RMK A01 T00221019  RH  074%=      5-min Rain = 0
KBO1 191626Z 28004KT 02/M02 A3033 RMK A01 T00231018  RH  074%=      5-min Rain = 0
KBO1 191627Z 29004KT 02/M02 A3033 RMK A01 T00241018  RH  074%=      5-min Rain = 0
KBO1 191628Z 29004KT 02/M02 A3033 RMK A01 T00241019  RH  073%=      5-min Rain = 0
KBO1 191629Z 29005KT 03/M02 A3033 RMK A01 T00251021  RH  072%=      5-min Rain = 0
KBO1 191630Z 30004KT 03/M02 A3033 RMK A01 T00251021  RH  072%=      5-min Rain = 0
KBO1 191631Z 29004KT 03/M02 A3033 RMK A01 T00261022  RH  071%=      5-min Rain = 0
KBO1 191632Z 29005KT 03/M02 A3033 RMK A01 T00261018  RH  073%=      5-min Rain = 0
KBO1 191633Z 29005KT 03/M02 A3033 RMK A01 T00271019  RH  072%=      5-min Rain = 0
KBO1 191634Z 29005KT 03/M02 A3033 RMK A01 T00271019  RH  071%=      5-min Rain = 0
KBO1 191635Z 29005KT 03/M02 A3033 RMK A01 T00271023  RH  070%=      5-min Rain = 0
KBO1 191636Z 30005KT 03/M02 A3033 RMK A01 T00271023  RH  070%=      5-min Rain = 0
KBO1 191637Z 30005KT 03/M03 A3033 RMK A01 T00281026  RH  068%=      5-min Rain = 0
KBO1 191638Z 30005KT 03/M03 A3033 RMK A01 T00281025  RH  068%=      5-min Rain = 0
KBO1 191639Z 30005KT 03/M02 A3033 RMK A01 T00281023  RH  069%=      5-min Rain = 0
KBO1 191640Z 30005KT 03/M02 A3033 RMK A01 T00291023  RH  069%=      5-min Rain = 0
KBO1 191641Z 30006KT 03/M02 A3033 RMK A01 T00301020  RH  070%=      5-min Rain = 0
KBO1 191642Z 31004KT 03/M02 A3033 RMK A01 T00291023  RH  068%=      5-min Rain = 0
KBO1 191643Z 29005KT 03/M02 A3033 RMK A01 T00301020  RH  070%=      5-min Rain = 0
KBO1 191644Z 30006KT 03/M02 A3033 RMK A01 T00311020  RH  069%=      5-min Rain = 0
KBO1 191645Z 30005KT 03/M02 A3034 RMK A01 T00301022  RH  068%=      5-min Rain = 0
KBO1 191646Z 31005KT 03/M02 A3034 RMK A01 T00311022  RH  068%=      5-min Rain = 0
KBO1 191647Z 32005KT 03/M02 A3034 RMK A01 T00311022  RH  068%=      5-min Rain = 0
KBO1 191648Z 30005KT 03/M02 A3034 RMK A01 T00311020  RH  069%=      5-min Rain = 0
KBO1 191649Z 31005KT 03/M02 A3034 RMK A01 T00311017  RH  071%=      5-min Rain = 0
KBO1 191650Z 31005KT 03/M02 A3034 RMK A01 T00321017  RH  070%=      5-min Rain = 0
KBO1 191651Z 31005KT 03/M02 A3034 RMK A01 T00331018  RH  070%=      5-min Rain = 0
KBO1 191652Z 32007KT 03/M02 A3034 RMK A01 T00331022  RH  067%=      5-min Rain = 0
KBO1 191653Z 31006KT 03/M02 A3034 RMK A01 T00331024  RH  066%=      5-min Rain = 0
KBO1 191654Z 31008KT 03/M02 A3034 RMK A01 T00331023  RH  067%=      5-min Rain = 0
KBO1 191655Z 31006KT 03/M02 A3034 RMK A01 T00341024  RH  066%=      5-min Rain = 0
KBO1 191656Z 30006KT 03/M03 A3034 RMK A01 T00341026  RH  065%=      5-min Rain = 0
KBO1 191657Z 30005KT 03/M02 A3034 RMK A01 T00341019  RH  068%=      5-min Rain = 0
KBO1 191658Z 30006KT 04/M02 A3034 RMK A01 T00351022  RH  067%=      5-min Rain = 0
KBO1 191659Z 30005KT 04/M02 A3034 RMK A01 T00351023  RH  066%=      5-min Rain = 0
KBO1 191700Z 31006KT 04/M02 A3034 RMK A01 T00361021  RH  067%=      5-min Rain = 0
KBO1 191701Z 31007KT 04/M02 A3034 RMK A01 T00361021  RH  066%=      5-min Rain = 0
KBO1 191702Z 32008KT 04/M02 A3034 RMK A01 T00371019  RH  067%=      5-min Rain = 0
KBO1 191703Z 32007KT 04/M02 A3034 RMK A01 T00381017  RH  067%=      5-min Rain = 0
KBO1 191704Z 34006KT 04/M02 A3034 RMK A01 T00371020  RH  066%=      5-min Rain = 0
KBO1 191705Z 33006KT 04/M03 A3034 RMK A01 T00381027  RH  063%=      5-min Rain = 0
KBO1 191706Z 32006KT 04/M03 A3034 RMK A01 T00381026  RH  063%=      5-min Rain = 0
KBO1 191707Z 32007KT 04/M02 A3034 RMK A01 T00381023  RH  065%=      5-min Rain = 0
KBO1 191708Z 32006KT 04/M03 A3034 RMK A01 T00381026  RH  063%=      5-min Rain = 0
KBO1 191709Z 33005KT 04/M03 A3034 RMK A01 T00381026  RH  063%=      5-min Rain = 0
KBO1 191710Z 33007KT 04/M02 A3034 RMK A01 T00381021  RH  065%=      5-min Rain = 0
KBO1 191711Z 33007KT 04/M02 A3034 RMK A01 T00391018  RH  066%=      5-min Rain = 0
KBO1 191712Z 33006KT 04/M02 A3034 RMK A01 T00401022  RH  064%=      5-min Rain = 0
KBO1 191713Z 33006KT 04/M02 A3034 RMK A01 T00401021  RH  064%=      5-min Rain = 0
KBO1 191714Z 33006KT 04/M03 A3034 RMK A01 T00401029  RH  061%=      5-min Rain = 0
KBO1 191715Z 35006KT 04/M02 A3034 RMK A01 T00391022  RH  064%=      5-min Rain = 0
KBO1 191716Z 35008KT 04/M02 A3034 RMK A01 T00411021  RH  064%=      5-min Rain = 0
KBO1 191717Z 36007KT 04/M02 A3034 RMK A01 T00411022  RH  063%=      5-min Rain = 0
KBO1 191718Z 34007KT 04/M03 A3034 RMK A01 T00411031  RH  059%=      5-min Rain = 0
KBO1 191719Z 33007KT 04/M03 A3034 RMK A01 T00411028  RH  061%=      5-min Rain = 0
KBO1 191720Z 32007KT 04/M03 A3034 RMK A01 T00411026  RH  061%=      5-min Rain = 0
KBO1 191721Z 34009KT 04/M03 A3034 RMK A01 T00421028  RH  061%=      5-min Rain = 0
KBO1 191722Z 34005KT 04/M03 A3034 RMK A01 T00411032  RH  059%=      5-min Rain = 0
KBO1 191723Z 34006KT 04/M03 A3034 RMK A01 T00411028  RH  061%=      5-min Rain = 0
KBO1 191724Z 35007KT 04/M02 A3034 RMK A01 T00421023  RH  063%=      5-min Rain = 0
KBO1 191725Z 35007KT 04/M02 A3034 RMK A01 T00431020  RH  064%=      5-min Rain = 0
KBO1 191726Z 33008KT 04/M02 A3034 RMK A01 T00441021  RH  063%=      5-min Rain = 0
KBO1 191727Z 35007KT 04/M02 A3034 RMK A01 T00441023  RH  062%=      5-min Rain = 0
KBO1 191728Z 35005KT 04/M03 A3034 RMK A01 T00441031  RH  058%=      5-min Rain = 0
KBO1 191729Z 01006KT 04/M03 A3034 RMK A01 T00431028  RH  060%=      5-min Rain = 0
KBO1 191730Z 35008KT 04/M02 A3034 RMK A01 T00441019  RH  064%=      5-min Rain = 0
KBO1 191731Z 35006KT 05/M03 A3034 RMK A01 T00451026  RH  060%=      5-min Rain = 0
KBO1 191732Z 34008KT 05/M03 A3034 RMK A01 T00451028  RH  059%=      5-min Rain = 0
KBO1 191733Z 34006KT 05/M03 A3034 RMK A01 T00451029  RH  059%=      5-min Rain = 0
KBO1 191734Z 00007KT 05/M02 A3034 RMK A01 T00451020  RH  063%=      5-min Rain = 0
KBO1 191735Z 35008KT 05/M02 A3034 RMK A01 T00461021  RH  062%=      5-min Rain = 0
KBO1 191736Z 35008KT 05/M02 A3034 RMK A01 T00461021  RH  062%=      5-min Rain = 0
KBO1 191737Z 35006KT 05/M02 A3034 RMK A01 T00461019  RH  063%=      5-min Rain = 0
KBO1 191738Z 36008KT 05/M02 A3034 RMK A01 T00471017  RH  063%=      5-min Rain = 0
KBO1 191739Z 36008KT 05/M02 A3034 RMK A01 T00471019  RH  062%=      5-min Rain = 0
KBO1 191740Z 34007KT 05/M01 A3034 RMK A01 T00481013  RH  064%=      5-min Rain = 0
KBO1 191741Z 35007KT 05/M02 A3034 RMK A01 T00491018  RH  062%=      5-min Rain = 0
KBO1 191742Z 36006KT 05/M02 A3034 RMK A01 T00491023  RH  060%=      5-min Rain = 0
KBO1 191743Z 35005KT 05/M02 A3034 RMK A01 T00491022  RH  060%=      5-min Rain = 0
KBO1 191744Z 34008KT 05/M02 A3034 RMK A01 T00491017  RH  062%=      5-min Rain = 0
KBO1 191745Z 35010KT 05/M02 A3034 RMK A01 T00501021  RH  060%=      5-min Rain = 0
KBO1 191746Z 34008KT 05/M03 A3034 RMK A01 T00491026  RH  058%=      5-min Rain = 0
KBO1 191747Z 34007KT 05/M02 A3034 RMK A01 T00491020  RH  061%=      5-min Rain = 0
KBO1 191748Z 33006KT 05/M02 A3034 RMK A01 T00491021  RH  060%=      5-min Rain = 0
KBO1 191749Z 33009KT 05/M03 A3034 RMK A01 T00491026  RH  058%=      5-min Rain = 0
KBO1 191750Z 32006KT 05/M03 A3034 RMK A01 T00481030  RH  057%=      5-min Rain = 0
KBO1 191751Z 33005KT 05/M03 A3034 RMK A01 T00471031  RH  057%=      5-min Rain = 0
KBO1 191752Z 34006KT 05/M02 A3034 RMK A01 T00481022  RH  061%=      5-min Rain = 0
KBO1 191753Z 33008KT 05/M02 A3034 RMK A01 T00511016  RH  062%=      5-min Rain = 0
KBO1 191754Z 33010KT 05/M02 A3034 RMK A01 T00511023  RH  059%=      5-min Rain = 0
KBO1 191755Z 33009KT 05/M02 A3034 RMK A01 T00511023  RH  059%=      5-min Rain = 0
KBO1 191756Z 33007KT 05/M03 A3034 RMK A01 T00501026  RH  058%=      5-min Rain = 0
KBO1 191757Z 34008KT 05/M02 A3034 RMK A01 T00501019  RH  061%=      5-min Rain = 0
KBO1 191758Z 34008KT 05/M02 A3034 RMK A01 T00511021  RH  060%=      5-min Rain = 0
KBO1 191759Z 35009KT 05/M02 A3034 RMK A01 T00511017  RH  061%=      5-min Rain = 0
KBO1 191800Z 36008KT 05/M02 A3034 RMK A01 T00521021  RH  059%=      5-min Rain = 0
KBO1 191801Z 35006KT 05/M02 A3034 RMK A01 T00511024  RH  058%=      5-min Rain = 0
KBO1 191802Z 36008KT 05/M02 A3034 RMK A01 T00511021  RH  060%=      5-min Rain = 0
KBO1 191803Z 00008KT 05/M02 A3034 RMK A01 T00521017  RH  061%=      5-min Rain = 0
KBO1 191804Z 00008KT 05/M02 A3034 RMK A01 T00521022  RH  059%=      5-min Rain = 0
KBO1 191805Z 00008KT 05/M02 A3034 RMK A01 T00511019  RH  061%=      5-min Rain = 0
KBO1 191806Z 35009KT 05/M02 A3034 RMK A01 T00521017  RH  061%=      5-min Rain = 0
KBO1 191807Z 35008KT 05/M02 A3034 RMK A01 T00521022  RH  059%=      5-min Rain = 0
KBO1 191808Z 00008KT 05/M02 A3034 RMK A01 T00511021  RH  060%=      5-min Rain = 0
KBO1 191809Z 36007KT 05/M02 A3033 RMK A01 T00511023  RH  059%=      5-min Rain = 0
KBO1 191810Z 34007KT 05/M02 A3033 RMK A01 T00511019  RH  061%=      5-min Rain = 0
KBO1 191811Z 34008KT 05/M02 A3033 RMK A01 T00521016  RH  061%=      5-min Rain = 0
KBO1 191812Z 34007KT 05/M02 A3033 RMK A01 T00521023  RH  059%=      5-min Rain = 0
KBO1 191813Z 34007KT 05/M02 A3033 RMK A01 T00511021  RH  060%=      5-min Rain = 0
KBO1 191814Z 33005KT 05/M02 A3033 RMK A01 T00511021  RH  059%=      5-min Rain = 0
KBO1 191815Z 01004KT 05/M02 A3033 RMK A01 T00511021  RH  060%=      5-min Rain = 0
KBO1 191816Z 35005KT 05/M02 A3033 RMK A01 T00521024  RH  058%=      5-min Rain = 0
KBO1 191817Z 00005KT 05/M02 A3033 RMK A01 T00521020  RH  060%=      5-min Rain = 0
KBO1 191818Z 34007KT 05/M02 A3033 RMK A01 T00521017  RH  061%=      5-min Rain = 0
KBO1 191819Z 33009KT 05/M02 A3033 RMK A01 T00541017  RH  060%=      5-min Rain = 0
KBO1 191820Z 32009KT 06/M02 A3033 RMK A01 T00551021  RH  058%=      5-min Rain = 0
KBO1 191821Z 33007KT 05/M03 A3033 RMK A01 T00531027  RH  056%=      5-min Rain = 0
KBO1 191822Z 32006KT 05/M03 A3033 RMK A01 T00521027  RH  057%=      5-min Rain = 0
KBO1 191823Z 32005KT 05/M02 A3033 RMK A01 T00531023  RH  058%=      5-min Rain = 0
KBO1 191824Z 33004KT 05/M03 A3033 RMK A01 T00531026  RH  057%=      5-min Rain = 0
KBO1 191825Z 35004KT 05/M02 A3033 RMK A01 T00541021  RH  059%=      5-min Rain = 0
KBO1 191826Z 32004KT 06/M02 A3033 RMK A01 T00551021  RH  058%=      5-min Rain = 0
KBO1 191827Z 34007KT 06/M02 A3033 RMK A01 T00551021  RH  058%=      5-min Rain = 0
KBO1 191828Z 33006KT 06/M02 A3033 RMK A01 T00561021  RH  057%=      5-min Rain = 0
KBO1 191829Z 34003KT 06/M02 A3033 RMK A01 T00561022  RH  057%=      5-min Rain = 0
KBO1 191830Z 33005KT 06/M02 A3033 RMK A01 T00571018  RH  059%=      5-min Rain = 0
KBO1 191831Z 33006KT 06/M02 A3032 RMK A01 T00581020  RH  057%=      5-min Rain = 0
KBO1 191832Z 34002KT 06/M03 A3033 RMK A01 T00571027  RH  055%=      5-min Rain = 0
KBO1 191833Z 34004KT 06/M03 A3032 RMK A01 T00561026  RH  056%=      5-min Rain = 0
KBO1 191834Z 00004KT 06/M02 A3032 RMK A01 T00561024  RH  056%=      5-min Rain = 0
KBO1 191835Z 00003KT 06/M02 A3032 RMK A01 T00561023  RH  057%=      5-min Rain = 0
KBO1 191836Z 34003KT 06/M02 A3032 RMK A01 T00581017  RH  059%=      5-min Rain = 0
KBO1 191837Z 34006KT 06/M02 A3032 RMK A01 T00591019  RH  057%=      5-min Rain = 0
KBO1 191838Z 34007KT 06/M02 A3032 RMK A01 T00601022  RH  056%=      5-min Rain = 0
KBO1 191839Z 33006KT 06/M02 A3032 RMK A01 T00591021  RH  056%=      5-min Rain = 0
KBO1 191840Z 32006KT 06/M02 A3032 RMK A01 T00591021  RH  056%=      5-min Rain = 0
KBO1 191841Z 31006KT 06/M03 A3032 RMK A01 T00591025  RH  055%=      5-min Rain = 0
KBO1 191842Z 31004KT 06/M03 A3032 RMK A01 T00581027  RH  054%=      5-min Rain = 0
KBO1 191843Z 27003KT 06/M03 A3032 RMK A01 T00571028  RH  054%=      5-min Rain = 0
KBO1 191844Z 25003KT 06/M03 A3032 RMK A01 T00571027  RH  055%=      5-min Rain = 0
KBO1 191845Z 24001KT 06/M03 A3032 RMK A01 T00571029  RH  054%=      5-min Rain = 0
KBO1 191846Z 32003KT 06/M03 A3032 RMK A01 T00571027  RH  054%=      5-min Rain = 0
KBO1 191847Z 34001KT 06/M03 A3032 RMK A01 T00581030  RH  053%=      5-min Rain = 0
KBO1 191848Z 30004KT 06/M03 A3032 RMK A01 T00581027  RH  054%=      5-min Rain = 0
KBO1 191849Z 29005KT 06/M03 A3032 RMK A01 T00591025  RH  055%=      5-min Rain = 0
KBO1 191850Z 29004KT 06/M03 A3032 RMK A01 T00591025  RH  055%=      5-min Rain = 0
KBO1 191851Z 28002KT 06/M02 A3032 RMK A01 T00591024  RH  055%=      5-min Rain = 0
KBO1 191852Z 32005KT 06/M03 A3032 RMK A01 T00601025  RH  055%=      5-min Rain = 0
KBO1 191853Z 32008KT 06/M02 A3032 RMK A01 T00611019  RH  056%=      5-min Rain = 0
KBO1 191854Z 33007KT 06/M02 A3032 RMK A01 T00621021  RH  055%=      5-min Rain = 0
KBO1 191855Z 33005KT 06/M02 A3031 RMK A01 T00631019  RH  056%=      5-min Rain = 0
KBO1 191856Z 31003KT 06/M02 A3031 RMK A01 T00641021  RH  054%=      5-min Rain = 0
KBO1 191857Z 34006KT 06/M02 A3031 RMK A01 T00641023  RH  054%=      5-min Rain = 0
KBO1 191858Z 33007KT 07/M02 A3031 RMK A01 T00661018  RH  055%=      5-min Rain = 0
KBO1 191859Z 33008KT 07/M02 A3031 RMK A01 T00671018  RH  054%=      5-min Rain = 0
KBO1 191900Z 33008KT 07/M02 A3031 RMK A01 T00671021  RH  054%=      5-min Rain = 0
KBO1 191901Z 33007KT 07/M03 A3031 RMK A01 T00661026  RH  052%=      5-min Rain = 0
KBO1 191902Z 31008KT 07/M02 A3031 RMK A01 T00651024  RH  053%=      5-min Rain = 0
KBO1 191903Z 31006KT 07/M02 A3031 RMK A01 T00651024  RH  053%=      5-min Rain = 0
KBO1 191904Z 31003KT 06/M02 A3031 RMK A01 T00641023  RH  054%=      5-min Rain = 0
KBO1 191905Z 30005KT 07/M02 A3031 RMK A01 T00651020  RH  054%=      5-min Rain = 0
KBO1 191906Z 29007KT 07/M02 A3031 RMK A01 T00671020  RH  054%=      5-min Rain = 0
KBO1 191907Z 30005KT 07/M03 A3031 RMK A01 T00671026  RH  052%=      5-min Rain = 0
KBO1 191908Z 32004KT 07/M03 A3032 RMK A01 T00651027  RH  052%=      5-min Rain = 0
KBO1 191909Z 32003KT 06/M03 A3032 RMK A01 T00641027  RH  052%=      5-min Rain = 0
KBO1 191910Z 31003KT 07/M03 A3032 RMK A01 T00651026  RH  052%=      5-min Rain = 0
KBO1 191911Z 33004KT 07/M02 A3032 RMK A01 T00651023  RH  053%=      5-min Rain = 0
KBO1 191912Z 01003KT 07/M02 A3032 RMK A01 T00671022  RH  053%=      5-min Rain = 0
KBO1 191913Z 30002KT 07/M03 A3032 RMK A01 T00671026  RH  051%=      5-min Rain = 0
KBO1 191914Z 27004KT 07/M02 A3032 RMK A01 T00671024  RH  052%=      5-min Rain = 0
KBO1 191915Z 24003KT 07/M02 A3032 RMK A01 T00681020  RH  053%=      5-min Rain = 0
KBO1 191916Z 34002KT 07/M02 A3032 RMK A01 T00691017  RH  054%=      5-min Rain = 0
KBO1 191917Z 29004KT 07/M02 A3031 RMK A01 T00711020  RH  052%=      5-min Rain = 0
KBO1 191918Z 27006KT 07/M02 A3031 RMK A01 T00721018  RH  053%=      5-min Rain = 0
KBO1 191919Z 29006KT 07/M02 A3031 RMK A01 T00741015  RH  053%=      5-min Rain = 0
KBO1 191920Z 31005KT 08/M02 A3031 RMK A01 T00751019  RH  051%=      5-min Rain = 0
KBO1 191921Z 33006KT 07/M02 A3031 RMK A01 T00741023  RH  050%=      5-min Rain = 0
KBO1 191922Z 31005KT 07/M03 A3031 RMK A01 T00711029  RH  049%=      5-min Rain = 0
KBO1 191923Z 31006KT 07/M02 A3031 RMK A01 T00711023  RH  051%=      5-min Rain = 0
KBO1 191924Z 29005KT 07/M02 A3031 RMK A01 T00731018  RH  053%=      5-min Rain = 0
KBO1 191925Z 31005KT 08/M02 A3031 RMK A01 T00761017  RH  052%=      5-min Rain = 0
KBO1 191926Z 32003KT 08/M02 A3031 RMK A01 T00761022  RH  050%=      5-min Rain = 0
KBO1 191927Z 34006KT 08/M03 A3031 RMK A01 T00761025  RH  049%=      5-min Rain = 0
KBO1 191928Z 36004KT 08/M03 A3031 RMK A01 T00751026  RH  049%=      5-min Rain = 0
KBO1 191929Z 34004KT 07/M03 A3031 RMK A01 T00721027  RH  049%=      5-min Rain = 0
KBO1 191930Z 32007KT 07/M02 A3031 RMK A01 T00731022  RH  051%=      5-min Rain = 0
KBO1 191931Z 32007KT 07/M02 A3031 RMK A01 T00731024  RH  050%=      5-min Rain = 0
KBO1 191932Z 31005KT 07/M03 A3031 RMK A01 T00731027  RH  049%=      5-min Rain = 0
KBO1 191933Z 29008KT 07/M03 A3031 RMK A01 T00721027  RH  049%=      5-min Rain = 0
KBO1 191934Z 30004KT 07/M03 A3031 RMK A01 T00711032  RH  048%=      5-min Rain = 0
KBO1 191935Z 30005KT 07/M03 A3031 RMK A01 T00701027  RH  050%=      5-min Rain = 0
KBO1 191936Z 32005KT 07/M03 A3031 RMK A01 T00711028  RH  049%=      5-min Rain = 0
KBO1 191937Z 31003KT 07/M03 A3031 RMK A01 T00711031  RH  048%=      5-min Rain = 0
KBO1 191938Z 30004KT 07/M03 A3031 RMK A01 T00711031  RH  048%=      5-min Rain = 0
KBO1 191939Z 30001KT 07/M03 A303 RMK A01 T00711033  RH  047%=      5-min Rain = 0
KBO1 191940Z 05001KT 07/M04 A303 RMK A01 T00711035  RH  047%=      5-min Rain = 0
KBO1 191941Z 14001KT 07/M03 A303 RMK A01 T00711034  RH  047%=      5-min Rain = 0
KBO1 191942Z 27004KT 07/M03 A303 RMK A01 T00711034  RH  047%=      5-min Rain = 0
KBO1 191943Z 28003KT 07/M03 A303 RMK A01 T00711033  RH  048%=      5-min Rain = 0
KBO1 191944Z 27003KT 07/M03 A303 RMK A01 T00721030  RH  048%=      5-min Rain = 0
KBO1 191945Z 28002KT 07/M03 A303 RMK A01 T00721033  RH  047%=      5-min Rain = 0
KBO1 191946Z 34002KT 07/M03 A303 RMK A01 T00721031  RH  048%=      5-min Rain = 0
KBO1 191947Z 35002KT 07/M03 A303 RMK A01 T00731030  RH  048%=      5-min Rain = 0
KBO1 191948Z 27003KT 07/M03 A303 RMK A01 T00741030  RH  047%=      5-min Rain = 0
KBO1 191949Z 28004KT 07/M03 A303 RMK A01 T00741029  RH  048%=      5-min Rain = 0
KBO1 191950Z 31005KT 08/M03 A303 RMK A01 T00751028  RH  048%=      5-min Rain = 0
KBO1 191951Z 30005KT 08/M03 A303 RMK A01 T00751029  RH  048%=      5-min Rain = 0
KBO1 191952Z 31002KT 07/M03 A303 RMK A01 T00741028  RH  048%=      5-min Rain = 0
KBO1 191953Z 33002KT 07/M03 A303 RMK A01 T00741026  RH  049%=      5-min Rain = 0
KBO1 191954Z 36002KT 08/M03 A303 RMK A01 T00751026  RH  049%=      5-min Rain = 0
KBO1 191955Z 32003KT 08/M03 A3029 RMK A01 T00761026  RH  048%=      5-min Rain = 0
KBO1 191956Z 29004KT 08/M02 A3029 RMK A01 T00771024  RH  049%=      5-min Rain = 0
KBO1 191957Z 30005KT 08/M02 A3029 RMK A01 T00791022  RH  049%=      5-min Rain = 0
KBO1 191958Z 31004KT 08/M03 A3029 RMK A01 T00791027  RH  047%=      5-min Rain = 0
KBO1 191959Z 24003KT 08/M02 A3029 RMK A01 T00771023  RH  049%=      5-min Rain = 0
KBO1 192000Z 26005KT 08/M02 A3029 RMK A01 T00781023  RH  049%=      5-min Rain = 0
KBO1 192001Z 22003KT 08/M02 A3029 RMK A01 T00791023  RH  048%=      5-min Rain = 0
KBO1 192002Z 25003KT 08/M02 A3029 RMK A01 T00801023  RH  048%=      5-min Rain = 0
KBO1 192003Z 28003KT 08/M03 A3029 RMK A01 T00801027  RH  047%=      5-min Rain = 0
KBO1 192004Z 31002KT 08/M03 A3029 RMK A01 T00781029  RH  047%=      5-min Rain = 0
KBO1 192005Z 24004KT 08/M03 A3029 RMK A01 T00771026  RH  048%=      5-min Rain = 0
KBO1 192006Z 22003KT 08/M03 A3029 RMK A01 T00771029  RH  047%=      5-min Rain = 0
KBO1 192007Z 25004KT 08/M02 A3028 RMK A01 T00771023  RH  049%=      5-min Rain = 0
KBO1 192008Z 24004KT 08/M02 A3028 RMK A01 T00791024  RH  048%=      5-min Rain = 0
KBO1 192009Z 23003KT 08/M03 A3028 RMK A01 T00791026  RH  047%=      5-min Rain = 0
KBO1 192010Z 19003KT 08/M03 A3028 RMK A01 T00791027  RH  047%=      5-min Rain = 0
KBO1 192011Z 22004KT 08/M03 A3028 RMK A01 T00791025  RH  048%=      5-min Rain = 0
KBO1 192012Z 25004KT 08/M03 A3028 RMK A01 T00791027  RH  047%=      5-min Rain = 0
KBO1 192013Z 24003KT 08/M03 A3028 RMK A01 T00791029  RH  046%=      5-min Rain = 0
KBO1 192014Z 22004KT 08/M03 A3028 RMK A01 T00781029  RH  047%=      5-min Rain = 0
KBO1 192015Z 22003KT 08/M03 A3028 RMK A01 T00781029  RH  047%=      5-min Rain = 0
KBO1 192016Z 26003KT 08/M03 A3028 RMK A01 T00791028  RH  047%=      5-min Rain = 0
KBO1 192017Z 28003KT 08/M03 A3028 RMK A01 T00801029  RH  046%=      5-min Rain = 0
KBO1 192018Z 33004KT 08/M03 A3028 RMK A01 T00821033  RH  044%=      5-min Rain = 0
KBO1 192019Z 30005KT 08/M04 A3028 RMK A01 T00831041  RH  041%=      5-min Rain = 0
KBO1 192020Z 27003KT 08/M04 A3028 RMK A01 T00831041  RH  041%=      5-min Rain = 0
KBO1 192021Z 30004KT 08/M04 A3027 RMK A01 T00831037  RH  042%=      5-min Rain = 0
KBO1 192022Z 29005KT 08/M04 A3027 RMK A01 T00841037  RH  042%=      5-min Rain = 0
KBO1 192023Z 26006KT 09/M03 A3027 RMK A01 T00851033  RH  043%=      5-min Rain = 0
KBO1 192024Z 25007KT 09/M03 A3027 RMK A01 T00851031  RH  044%=      5-min Rain = 0
KBO1 192025Z 23006KT 09/M04 A3027 RMK A01 T00861036  RH  042%=      5-min Rain = 0
KBO1 192026Z 23002KT 08/M04 A3027 RMK A01 T00841037  RH  042%=      5-min Rain = 0
KBO1 192027Z 27003KT 08/M04 A3027 RMK A01 T00841036  RH  042%=      5-min Rain = 0
KBO1 192028Z 29003KT 09/M04 A3027 RMK A01 T00851041  RH  041%=      5-min Rain = 0
KBO1 192029Z 27005KT 08/M04 A3027 RMK A01 T00841039  RH  041%=      5-min Rain = 0
KBO1 192030Z 25005KT 08/M04 A3027 RMK A01 T00841039  RH  041%=      5-min Rain = 0
KBO1 192031Z 28001KT 08/M04 A3027 RMK A01 T00841037  RH  042%=      5-min Rain = 0
KBO1 192032Z 30002KT 09/M04 A3027 RMK A01 T00851037  RH  042%=      5-min Rain = 0
KBO1 192033Z 33004KT 09/M04 A3027 RMK A01 T00861038  RH  041%=      5-min Rain = 0
KBO1 192034Z 28004KT 08/M04 A3027 RMK A01 T00841038  RH  042%=      5-min Rain = 0
KBO1 192035Z 26005KT 09/M03 A3027 RMK A01 T00851032  RH  043%=      5-min Rain = 0
KBO1 192036Z 23006KT 09/M03 A3026 RMK A01 T00861033  RH  043%=      5-min Rain = 0
KBO1 192037Z 20007KT 09/M03 A3026 RMK A01 T00881029  RH  044%=      5-min Rain = 0
KBO1 192038Z 19004KT 09/M04 A3026 RMK A01 T00881038  RH  041%=      5-min Rain = 0
KBO1 192039Z 22006KT 09/M04 A3026 RMK A01 T00861039  RH  041%=      5-min Rain = 0
KBO1 192040Z 22005KT 09/M04 A3026 RMK A01 T00851042  RH  040%=      5-min Rain = 0
KBO1 192041Z 24007KT 09/M04 A3026 RMK A01 T00851038  RH  042%=      5-min Rain = 0
KBO1 192042Z 24005KT 09/M04 A3026 RMK A01 T00851041  RH  041%=      5-min Rain = 0
KBO1 192043Z 22002KT 08/M04 A3026 RMK A01 T00841042  RH  041%=      5-min Rain = 0
KBO1 192044Z 15001KT 08/M04 A3026 RMK A01 T00841044  RH  040%=      5-min Rain = 0
KBO1 192045Z 10001KT 09/M05 A3026 RMK A01 T00851046  RH  039%=      5-min Rain = 0
KBO1 192046Z 16001KT 08/M04 A3026 RMK A01 T00841044  RH  040%=      5-min Rain = 0
KBO1 192047Z 19003KT 09/M04 A3026 RMK A01 T00851042  RH  040%=      5-min Rain = 0
KBO1 192048Z 18002KT 09/M04 A3026 RMK A01 T00871040  RH  040%=      5-min Rain = 0
KBO1 192049Z 18002KT 09/M04 A3026 RMK A01 T00891042  RH  039%=      5-min Rain = 0
KBO1 192050Z 22006KT 09/M04 A3026 RMK A01 T00901040  RH  040%=      5-min Rain = 0
KBO1 192051Z 21002KT 09/M04 A3026 RMK A01 T00901042  RH  039%=      5-min Rain = 0
KBO1 192052Z 20001KT 09/M04 A3026 RMK A01 T00891043  RH  039%=      5-min Rain = 0
KBO1 192053Z 19001KT 09/M04 A3026 RMK A01 T00891043  RH  039%=      5-min Rain = 0
KBO1 192054Z 18004KT 09/M04 A3026 RMK A01 T00911040  RH  039%=      5-min Rain = 0
KBO1 192055Z 17004KT 09/M04 A3026 RMK A01 T00921043  RH  038%=      5-min Rain = 0
KBO1 192056Z 17004KT 09/M04 A3026 RMK A01 T00911042  RH  039%=      5-min Rain = 0
KBO1 192057Z 15003KT 09/M04 A3025 RMK A01 T00911040  RH  040%=      5-min Rain = 0
KBO1 192058Z 15003KT 09/M04 A3025 RMK A01 T00911042  RH  039%=      5-min Rain = 0
KBO1 192059Z 09002KT 09/M04 A3025 RMK A01 T00911037  RH  040%=      5-min Rain = 0
KBO1 192100Z 09004KT 09/M03 A3025 RMK A01 T00931033  RH  041%=      5-min Rain = 0
KBO1 192101Z 12003KT 09/M04 A3025 RMK A01 T00931035  RH  040%=      5-min Rain = 0
KBO1 192102Z 18003KT 09/M03 A3025 RMK A01 T00931034  RH  041%=      5-min Rain = 0
KBO1 192103Z 13002KT 09/M03 A3025 RMK A01 T00941034  RH  040%=      5-min Rain = 0
KBO1 192104Z 05004KT 10/M04 A3025 RMK A01 T00951036  RH  039%=      5-min Rain = 0
KBO1 192105Z 35003KT 09/M04 A3025 RMK A01 T00941041  RH  038%=      5-min Rain = 0
KBO1 192106Z 28003KT 09/M05 A3025 RMK A01 T00921046  RH  037%=      5-min Rain = 0
KBO1 192107Z 30006KT 09/M05 A3025 RMK A01 T00921052  RH  036%=      5-min Rain = 0
KBO1 192108Z 30005KT 09/M06 A3025 RMK A01 T00931055  RH  035%=      5-min Rain = 0
KBO1 192109Z 29003KT 09/M06 A3025 RMK A01 T00921058  RH  034%=      5-min Rain = 0
KBO1 192110Z 29002KT 09/M06 A3025 RMK A01 T00921055  RH  035%=      5-min Rain = 0
KBO1 192111Z 31004KT 09/M06 A3025 RMK A01 T00911057  RH  035%=      5-min Rain = 0
KBO1 192112Z 32002KT 09/M06 A3025 RMK A01 T00911062  RH  033%=      5-min Rain = 0
KBO1 192113Z 03002KT 09/M06 A3025 RMK A01 T00901064  RH  033%=      5-min Rain = 0
KBO1 192114Z 04001KT 09/M07 A3025 RMK A01 T00901065  RH  033%=      5-min Rain = 0
KBO1 192115Z 01002KT 09/M06 A3025 RMK A01 T00901063  RH  033%=      5-min Rain = 0
KBO1 192116Z 29003KT 09/M06 A3025 RMK A01 T00911055  RH  035%=      5-min Rain = 0
KBO1 192117Z 29005KT 09/M06 A3025 RMK A01 T00931058  RH  034%=      5-min Rain = 0
KBO1 192118Z 27006KT 10/M06 A3025 RMK A01 T00951061  RH  033%=      5-min Rain = 0
KBO1 192119Z 26004KT 10/M06 A3025 RMK A01 T00951063  RH  032%=      5-min Rain = 0
KBO1 192120Z 29002KT 09/M07 A3025 RMK A01 T00941068  RH  031%=      5-min Rain = 0
KBO1 192121Z 22002KT 09/M07 A3025 RMK A01 T00931068  RH  031%=      5-min Rain = 0
KBO1 192122Z 24002KT 09/M07 A3025 RMK A01 T00931071  RH  031%=      5-min Rain = 0
KBO1 192123Z 28002KT 09/M07 A3025 RMK A01 T00941072  RH  030%=      5-min Rain = 0
KBO1 192124Z 31004KT 09/M07 A3025 RMK A01 T00941065  RH  032%=      5-min Rain = 0
KBO1 192125Z 29006KT 09/M06 A3025 RMK A01 T00941064  RH  032%=      5-min Rain = 0
KBO1 192126Z 29004KT 09/M06 A3025 RMK A01 T00941063  RH  033%=      5-min Rain = 0
KBO1 192127Z 29002KT 09/M07 A3025 RMK A01 T00931065  RH  032%=      5-min Rain = 0
KBO1 192128Z 28001KT 09/M06 A3025 RMK A01 T00931064  RH  032%=      5-min Rain = 0
KBO1 192129Z 33000KT 09/M06 A3025 RMK A01 T00941057  RH  034%=      5-min Rain = 0
KBO1 192130Z 28004KT 10/M06 A3025 RMK A01 T00971055  RH  034%=      5-min Rain = 0
KBO1 192131Z 28004KT 10/M06 A3025 RMK A01 T00981060  RH  032%=      5-min Rain = 0
KBO1 192132Z 28005KT 10/M06 A3025 RMK A01 T00981060  RH  032%=      5-min Rain = 0
KBO1 192133Z 29004KT 10/M06 A3025 RMK A01 T00971062  RH  032%=      5-min Rain = 0
KBO1 192134Z 29004KT 10/M06 A3025 RMK A01 T00951061  RH  033%=      5-min Rain = 0
KBO1 192135Z 29002KT 09/M06 A3025 RMK A01 T00941059  RH  033%=      5-min Rain = 0
KBO1 192136Z 34002KT 09/M06 A3025 RMK A01 T00941062  RH  033%=      5-min Rain = 0
KBO1 192137Z 01001KT 09/M07 A3025 RMK A01 T00931065  RH  032%=      5-min Rain = 0
KBO1 192138Z 00000KT 09/M07 A3025 RMK A01 T00921066  RH  032%=      5-min Rain = 0
KBO1 192139Z 07000KT 09/M07 A3025 RMK A01 T00921066  RH  032%=      5-min Rain = 0
KBO1 192140Z 08000KT 09/M06 A3025 RMK A01 T00941062  RH  033%=      5-min Rain = 0
KBO1 192141Z 00000KT 10/M06 A3025 RMK A01 T00981062  RH  032%=      5-min Rain = 0
KBO1 192142Z 21003KT 10/M06 A3025 RMK A01 T01011059  RH  032%=      5-min Rain = 0
KBO1 192143Z 19005KT 10/M05 A3025 RMK A01 T01011053  RH  033%=      5-min Rain = 0
KBO1 192144Z 19005KT 10/M06 A3025 RMK A01 T00981055  RH  034%=      5-min Rain = 0
KBO1 192145Z 18004KT 10/M05 A3025 RMK A01 T00961053  RH  034%=      5-min Rain = 0
KBO1 192146Z 16003KT 10/M06 A3025 RMK A01 T00951055  RH  034%=      5-min Rain = 0
KBO1 192147Z 20004KT 10/M05 A3025 RMK A01 T00951051  RH  035%=      5-min Rain = 0
KBO1 192148Z 19005KT 10/M05 A3025 RMK A01 T00951053  RH  035%=      5-min Rain = 0
KBO1 192149Z 19004KT 10/M05 A3025 RMK A01 T00961051  RH  035%=      5-min Rain = 0
KBO1 192150Z 19003KT 10/M05 A3025 RMK A01 T00961052  RH  035%=      5-min Rain = 0
KBO1 192151Z 19003KT 10/M06 A3025 RMK A01 T00971055  RH  034%=      5-min Rain = 0
KBO1 192152Z 19004KT 10/M05 A3025 RMK A01 T00971053  RH  034%=      5-min Rain = 0
KBO1 192153Z 15004KT 10/M05 A3025 RMK A01 T00971054  RH  034%=      5-min Rain = 0
KBO1 192154Z 17004KT 10/M05 A3025 RMK A01 T00971054  RH  034%=      5-min Rain = 0
KBO1 192155Z 20003KT 10/M06 A3025 RMK A01 T00961057  RH  034%=      5-min Rain = 0
KBO1 192156Z 22004KT 10/M06 A3026 RMK A01 T00961056  RH  034%=      5-min Rain = 0
KBO1 192157Z 21004KT 10/M05 A3026 RMK A01 T00961052  RH  035%=      5-min Rain = 0
KBO1 192158Z 20004KT 10/M05 A3026 RMK A01 T00951052  RH  035%=      5-min Rain = 0
KBO1 192159Z 19004KT 10/M05 A3025 RMK A01 T00961053  RH  035%=      5-min Rain = 0
KBO1 192200Z 22004KT 10/M06 A3025 RMK A01 T00961056  RH  034%=      5-min Rain = 0
KBO1 192201Z 20004KT 10/M05 A3025 RMK A01 T00961052  RH  035%=      5-min Rain = 0
KBO1 192202Z 18003KT 10/M06 A3025 RMK A01 T00961055  RH  034%=      5-min Rain = 0
KBO1 192203Z 19004KT 10/M06 A3025 RMK A01 T00961056  RH  034%=      5-min Rain = 0
KBO1 192204Z 20003KT 10/M06 A3025 RMK A01 T00961060  RH  033%=      5-min Rain = 0
KBO1 192205Z 22002KT 10/M06 A3025 RMK A01 T00961059  RH  033%=      5-min Rain = 0
KBO1 192206Z 23001KT 10/M06 A3025 RMK A01 T00961060  RH  033%=      5-min Rain = 0
KBO1 192207Z 24003KT 10/M06 A3025 RMK A01 T00961061  RH  032%=      5-min Rain = 0
KBO1 192208Z 24002KT 10/M06 A3025 RMK A01 T00961063  RH  032%=      5-min Rain = 0
KBO1 192209Z 24002KT 10/M06 A3025 RMK A01 T00961062  RH  032%=      5-min Rain = 0
KBO1 192210Z 24002KT 10/M06 A3025 RMK A01 T00971063  RH  032%=      5-min Rain = 0
KBO1 192211Z 24003KT 10/M06 A3025 RMK A01 T00981061  RH  032%=      5-min Rain = 0
KBO1 192212Z 23002KT 10/M07 A3025 RMK A01 T00981065  RH  031%=      5-min Rain = 0
KBO1 192213Z 26001KT 10/M07 A3025 RMK A01 T00971067  RH  031%=      5-min Rain = 0
KBO1 192214Z 28004KT 10/M06 A3025 RMK A01 T00971063  RH  032%=      5-min Rain = 0
KBO1 192215Z 27004KT 10/M06 A3025 RMK A01 T00971062  RH  032%=      5-min Rain = 0
KBO1 192216Z 28002KT 10/M07 A3025 RMK A01 T00961066  RH  031%=      5-min Rain = 0
KBO1 192217Z 29001KT 10/M06 A3025 RMK A01 T00961063  RH  032%=      5-min Rain = 0
KBO1 192218Z 24002KT 10/M06 A3025 RMK A01 T00991059  RH  032%=      5-min Rain = 0
KBO1 192219Z 23003KT 10/M06 A3025 RMK A01 T01011058  RH  032%=      5-min Rain = 0
KBO1 192220Z 27002KT 10/M06 A3025 RMK A01 T01011060  RH  032%=      5-min Rain = 0
KBO1 192221Z 30002KT 10/M06 A3025 RMK A01 T01011061  RH  031%=      5-min Rain = 0
KBO1 192222Z 31003KT 10/M06 A3025 RMK A01 T01001063  RH  031%=      5-min Rain = 0
KBO1 192223Z 33001KT 10/M07 A3025 RMK A01 T00981066  RH  031%=      5-min Rain = 0
KBO1 192224Z 29001KT 10/M07 A3025 RMK A01 T00981066  RH  031%=      5-min Rain = 0
KBO1 192225Z 23003KT 10/M06 A3025 RMK A01 T00971064  RH  031%=      5-min Rain = 0
KBO1 192226Z 24003KT 10/M07 A3025 RMK A01 T00981065  RH  031%=      5-min Rain = 0
KBO1 192227Z 23003KT 10/M06 A3025 RMK A01 T00981063  RH  031%=      5-min Rain = 0
KBO1 192228Z 24005KT 10/M06 A3025 RMK A01 T00981061  RH  032%=      5-min Rain = 0
KBO1 192229Z 23003KT 10/M06 A3025 RMK A01 T00981061  RH  032%=      5-min Rain = 0
KBO1 192230Z 21004KT 10/M06 A3025 RMK A01 T00981059  RH  033%=      5-min Rain = 0
KBO1 192231Z 21004KT 10/M06 A3025 RMK A01 T00981058  RH  033%=      5-min Rain = 0
KBO1 192232Z 20004KT 10/M06 A3025 RMK A01 T00981064  RH  031%=      5-min Rain = 0
KBO1 192233Z 22005KT 10/M06 A3025 RMK A01 T00971059  RH  033%=      5-min Rain = 0
KBO1 192234Z 21004KT 10/M06 A3025 RMK A01 T00981060  RH  032%=      5-min Rain = 0
KBO1 192235Z 22004KT 10/M06 A3025 RMK A01 T00971063  RH  032%=      5-min Rain = 0
KBO1 192236Z 25004KT 10/M06 A3025 RMK A01 T00971062  RH  032%=      5-min Rain = 0
KBO1 192237Z 26005KT 10/M06 A3025 RMK A01 T00981060  RH  032%=      5-min Rain = 0
KBO1 192238Z 27003KT 10/M06 A3025 RMK A01 T00971057  RH  033%=      5-min Rain = 0
KBO1 192239Z 26003KT 10/M06 A3025 RMK A01 T00971055  RH  034%=      5-min Rain = 0
KBO1 192240Z 23003KT 10/M05 A3025 RMK A01 T00981053  RH  034%=      5-min Rain = 0
KBO1 192241Z 21003KT 10/M06 A3025 RMK A01 T00991055  RH  033%=      5-min Rain = 0
KBO1 192242Z 21002KT 10/M06 A3025 RMK A01 T00981056  RH  033%=      5-min Rain = 0
KBO1 192243Z 18003KT 10/M05 A3025 RMK A01 T00981050  RH  035%=      5-min Rain = 0
KBO1 192244Z 16003KT 10/M05 A3025 RMK A01 T00991052  RH  034%=      5-min Rain = 0
KBO1 192245Z 15003KT 10/M05 A3025 RMK A01 T00991049  RH  035%=      5-min Rain = 0
KBO1 192246Z 14003KT 10/M05 A3025 RMK A01 T00991049  RH  035%=      5-min Rain = 0
KBO1 192247Z 15002KT 10/M05 A3025 RMK A01 T00981052  RH  034%=      5-min Rain = 0
KBO1 192248Z 16004KT 10/M05 A3025 RMK A01 T00981050  RH  035%=      5-min Rain = 0
KBO1 192249Z 18004KT 10/M05 A3025 RMK A01 T00981046  RH  036%=      5-min Rain = 0
KBO1 192250Z 19005KT 10/M04 A3025 RMK A01 T00981044  RH  036%=      5-min Rain = 0
KBO1 192251Z 19005KT 10/M05 A3025 RMK A01 T00981046  RH  036%=      5-min Rain = 0
KBO1 192252Z 19006KT 10/M05 A3025 RMK A01 T00981046  RH  036%=      5-min Rain = 0
KBO1 192253Z 21005KT 10/M05 A3025 RMK A01 T00971047  RH  036%=      5-min Rain = 0
KBO1 192254Z 21003KT 10/M05 A3025 RMK A01 T00961050  RH  035%=      5-min Rain = 0
KBO1 192255Z 21002KT 10/M05 A3025 RMK A01 T00951054  RH  035%=      5-min Rain = 0
KBO1 192256Z 21002KT 10/M05 A3025 RMK A01 T00951051  RH  035%=      5-min Rain = 0
KBO1 192257Z 19001KT 10/M05 A3025 RMK A01 T00951054  RH  034%=      5-min Rain = 0
KBO1 192258Z 19000KT 10/M05 A3025 RMK A01 T00961054  RH  034%=      5-min Rain = 0
KBO1 192259Z 14000KT 10/M05 A3025 RMK A01 T00961053  RH  034%=      5-min Rain = 0
KBO1 192300Z 14001KT 10/M05 A3025 RMK A01 T00981049  RH  035%=      5-min Rain = 0
KBO1 192301Z 14000KT 10/M05 A3025 RMK A01 T00981054  RH  034%=      5-min Rain = 0
KBO1 192302Z 00000KT 10/M05 A3025 RMK A01 T00991052  RH  034%=      5-min Rain = 0
KBO1 192303Z 12000KT 10/M04 A3025 RMK A01 T01001043  RH  036%=      5-min Rain = 0
KBO1 192304Z 15001KT 10/M05 A3026 RMK A01 T01021046  RH  035%=      5-min Rain = 0
KBO1 192305Z 15002KT 10/M05 A3025 RMK A01 T01031047  RH  034%=      5-min Rain = 0
KBO1 192306Z 15003KT 10/M05 A3025 RMK A01 T01031049  RH  034%=      5-min Rain = 0
KBO1 192307Z 16003KT 10/M05 A3025 RMK A01 T01021049  RH  034%=      5-min Rain = 0
KBO1 192308Z 16003KT 10/M05 A3025 RMK A01 T01011050  RH  034%=      5-min Rain = 0
KBO1 192309Z 18004KT 10/M05 A3025 RMK A01 T01001046  RH  036%=      5-min Rain = 0
KBO1 192310Z 19004KT 10/M05 A3025 RMK A01 T00981046  RH  036%=      5-min Rain = 0
KBO1 192311Z 18003KT 10/M05 A3026 RMK A01 T00971048  RH  035%=      5-min Rain = 0
KBO1 192312Z 17003KT 10/M05 A3026 RMK A01 T00961049  RH  035%=      5-min Rain = 0
KBO1 192313Z 17002KT 10/M05 A3026 RMK A01 T00961046  RH  036%=      5-min Rain = 0
KBO1 192314Z 17003KT 10/M05 A3026 RMK A01 T00961047  RH  036%=      5-min Rain = 0
KBO1 192315Z 17002KT 10/M05 A3026 RMK A01 T00961049  RH  036%=      5-min Rain = 0
KBO1 192316Z 18001KT 10/M05 A3026 RMK A01 T00961052  RH  035%=      5-min Rain = 0
KBO1 192317Z 18001KT 10/M05 A3026 RMK A01 T00961052  RH  035%=      5-min Rain = 0
KBO1 192318Z 15001KT 10/M05 A3026 RMK A01 T00961049  RH  036%=      5-min Rain = 0
KBO1 192319Z 14003KT 10/M05 A3026 RMK A01 T00981049  RH  035%=      5-min Rain = 0
KBO1 192320Z 14004KT 10/M05 A3026 RMK A01 T00981046  RH  036%=      5-min Rain = 0
KBO1 192321Z 14004KT 10/M04 A3026 RMK A01 T00971044  RH  037%=      5-min Rain = 0
KBO1 192322Z 14004KT 10/M05 A3026 RMK A01 T00951046  RH  037%=      5-min Rain = 0
KBO1 192323Z 14003KT 09/M05 A3026 RMK A01 T00941047  RH  037%=      5-min Rain = 0
KBO1 192324Z 14003KT 09/M05 A3026 RMK A01 T00941046  RH  037%=      5-min Rain = 0
KBO1 192325Z 13004KT 09/M04 A3026 RMK A01 T00931044  RH  038%=      5-min Rain = 0
KBO1 192326Z 16002KT 09/M04 A3026 RMK A01 T00931042  RH  038%=      5-min Rain = 0
KBO1 192327Z 16003KT 09/M04 A3026 RMK A01 T00931042  RH  038%=      5-min Rain = 0
KBO1 192328Z 17004KT 09/M04 A3026 RMK A01 T00931043  RH  038%=      5-min Rain = 0
KBO1 192329Z 16004KT 09/M04 A3026 RMK A01 T00931041  RH  039%=      5-min Rain = 0
KBO1 192330Z 16004KT 09/M04 A3026 RMK A01 T00921041  RH  039%=      5-min Rain = 0
KBO1 192331Z 16005KT 09/M04 A3026 RMK A01 T00921039  RH  039%=      5-min Rain = 0
KBO1 192332Z 16005KT 09/M04 A3026 RMK A01 T00911040  RH  039%=      5-min Rain = 0
KBO1 192333Z 16004KT 09/M04 A3026 RMK A01 T00901039  RH  040%=      5-min Rain = 0
KBO1 192334Z 16004KT 09/M04 A3025 RMK A01 T00891040  RH  040%=      5-min Rain = 0
KBO1 192335Z 15004KT 09/M04 A3025 RMK A01 T00891039  RH  040%=      5-min Rain = 0
KBO1 192336Z 15004KT 09/M04 A3025 RMK A01 T00881039  RH  040%=      5-min Rain = 0
KBO1 192337Z 15004KT 09/M04 A3025 RMK A01 T00881038  RH  041%=      5-min Rain = 0
KBO1 192338Z 15004KT 09/M04 A3025 RMK A01 T00871039  RH  041%=      5-min Rain = 0
KBO1 192339Z 14004KT 09/M04 A3025 RMK A01 T00871039  RH  041%=      5-min Rain = 0
KBO1 192340Z 14004KT 09/M04 A3025 RMK A01 T00861039  RH  041%=      5-min Rain = 0
KBO1 192341Z 14005KT 09/M04 A3025 RMK A01 T00851040  RH  041%=      5-min Rain = 0
KBO1 192342Z 13004KT 08/M04 A3025 RMK A01 T00831039  RH  042%=      5-min Rain = 0
KBO1 192343Z 13004KT 08/M04 A3025 RMK A01 T00821039  RH  042%=      5-min Rain = 0
KBO1 192344Z 13005KT 08/M04 A3025 RMK A01 T00811039  RH  042%=      5-min Rain = 0
KBO1 192345Z 14004KT 08/M04 A3025 RMK A01 T00801039  RH  043%=      5-min Rain = 0
KBO1 192346Z 14004KT 08/M04 A3025 RMK A01 T00791039  RH  043%=      5-min Rain = 0
KBO1 192347Z 14004KT 08/M04 A3025 RMK A01 T00791038  RH  043%=      5-min Rain = 0
KBO1 192348Z 14004KT 08/M04 A3025 RMK A01 T00781038  RH  044%=      5-min Rain = 0
KBO1 192349Z 14004KT 08/M04 A3025 RMK A01 T00771038  RH  044%=      5-min Rain = 0
KBO1 192350Z 14004KT 08/M04 A3025 RMK A01 T00771037  RH  044%=      5-min Rain = 0
KBO1 192351Z 14004KT 08/M04 A3025 RMK A01 T00771037  RH  044%=      5-min Rain = 0
KBO1 192352Z 14004KT 08/M04 A3025 RMK A01 T00771037  RH  044%=      5-min Rain = 0
KBO1 192353Z 14004KT 08/M04 A3025 RMK A01 T00761038  RH  044%=      5-min Rain = 0
KBO1 192354Z 14004KT 08/M04 A3025 RMK A01 T00761037  RH  045%=      5-min Rain = 0
KBO1 192355Z 14004KT 08/M04 A3025 RMK A01 T00751037  RH  045%=      5-min Rain = 0
KBO1 192356Z 14005KT 07/M04 A3025 RMK A01 T00741037  RH  045%=      5-min Rain = 0
KBO1 192357Z 14005KT 07/M04 A3025 RMK A01 T00741037  RH  045%=      5-min Rain = 0
KBO1 192358Z 14005KT 07/M04 A3025 RMK A01 T00731036  RH  046%=      5-min Rain = 0
KBO1 192359Z 13005KT 07/M04 A3025 RMK A01 T00721036  RH  046%=      5-min Rain = 0
KBO1 200000Z 13005KT 07/M04 A3025 RMK A01 T00711036  RH  046%=      5-min Rain = 0
KBO1 200001Z 13004KT 07/M04 A3025 RMK A01 T00691036  RH  047%=      5-min Rain = 0
KBO1 200002Z 13004KT 07/M04 A3025 RMK A01 T00681036  RH  047%=      5-min Rain = 0
KBO1 200003Z 13004KT 07/M04 A3025 RMK A01 T00671036  RH  048%=      5-min Rain = 0
KBO1 200004Z 13004KT 07/M04 A3025 RMK A01 T00661035  RH  048%=      5-min Rain = 0
KBO1 200005Z 13005KT 07/M03 A3025 RMK A01 T00661034  RH  049%=      5-min Rain = 0
KBO1 200006Z 13005KT 07/M03 A3025 RMK A01 T00651034  RH  049%=      5-min Rain = 0
KBO1 200007Z 14006KT 06/M03 A3025 RMK A01 T00641034  RH  050%=      5-min Rain = 0
KBO1 200008Z 14006KT 06/M03 A3025 RMK A01 T00631033  RH  050%=      5-min Rain = 0
KBO1 200009Z 13006KT 06/M03 A3025 RMK A01 T00621034  RH  050%=      5-min Rain = 0
KBO1 200010Z 13006KT 06/M04 A3025 RMK A01 T00611035  RH  050%=      5-min Rain = 0
KBO1 200011Z 13007KT 06/M04 A3025 RMK A01 T00581035  RH  051%=      5-min Rain = 0
KBO1 200012Z 13007KT 06/M04 A3025 RMK A01 T00561036  RH  052%=      5-min Rain = 0
KBO1 200013Z 13007KT 05/M04 A3025 RMK A01 T00531036  RH  053%=      5-min Rain = 0
KBO1 200014Z 13007KT 05/M04 A3025 RMK A01 T00511036  RH  053%=      5-min Rain = 0
KBO1 200015Z 13007KT 05/M04 A3025 RMK A01 T00491036  RH  054%=      5-min Rain = 0
KBO1 200016Z 13007KT 05/M04 A3025 RMK A01 T00471036  RH  055%=      5-min Rain = 0
KBO1 200017Z 14007KT 05/M04 A3025 RMK A01 T00461036  RH  055%=      5-min Rain = 0
KBO1 200018Z 14007KT 04/M04 A3025 RMK A01 T00441036  RH  056%=      5-min Rain = 0
KBO1 200019Z 14008KT 04/M04 A3025 RMK A01 T00421036  RH  057%=      5-min Rain = 0
KBO1 200020Z 14008KT 04/M04 A3026 RMK A01 T00401036  RH  057%=      5-min Rain = 0
KBO1 200021Z 14007KT 04/M04 A3025 RMK A01 T00391036  RH  058%=      5-min Rain = 0
KBO1 200022Z 13008KT 04/M04 A3025 RMK A01 T00371037  RH  058%=      5-min Rain = 0
KBO1 200023Z 13007KT 04/M04 A3025 RMK A01 T00371037  RH  059%=      5-min Rain = 0
KBO1 200024Z 13007KT 04/M04 A3025 RMK A01 T00361037  RH  059%=      5-min Rain = 0
KBO1 200025Z 13007KT 04/M04 A3025 RMK A01 T00351038  RH  059%=      5-min Rain = 0
KBO1 200026Z 13007KT 03/M04 A3025 RMK A01 T00341038  RH  059%=      5-min Rain = 0
KBO1 200027Z 13007KT 03/M04 A3025 RMK A01 T00341038  RH  059%=      5-min Rain = 0
KBO1 200028Z 12008KT 03/M04 A3025 RMK A01 T00331038  RH  059%=      5-min Rain = 0
KBO1 200029Z 13009KT 03/M04 A3025 RMK A01 T00331039  RH  059%=      5-min Rain = 0
KBO1 200030Z 13009KT 03/M04 A3025 RMK A01 T00321039  RH  059%=      5-min Rain = 0
KBO1 200031Z 13009KT 03/M04 A3025 RMK A01 T00321039  RH  060%=      5-min Rain = 0
KBO1 200032Z 13008KT 03/M04 A3025 RMK A01 T00321038  RH  060%=      5-min Rain = 0
KBO1 200033Z 13008KT 03/M04 A3025 RMK A01 T00311038  RH  060%=      5-min Rain = 0
KBO1 200034Z 13009KT 03/M04 A3025 RMK A01 T00301039  RH  060%=      5-min Rain = 0
KBO1 200035Z 13008KT 03/M04 A3025 RMK A01 T00291039  RH  061%=      5-min Rain = 0
KBO1 200036Z 13008KT 03/M04 A3025 RMK A01 T00291039  RH  061%=      5-min Rain = 0
KBO1 200037Z 13008KT 03/M04 A3025 RMK A01 T00281039  RH  062%=      5-min Rain = 0
KBO1 200038Z 13009KT 03/M04 A3025 RMK A01 T00281038  RH  062%=      5-min Rain = 0
KBO1 200039Z 13008KT 03/M04 A3025 RMK A01 T00271038  RH  062%=      5-min Rain = 0
KBO1 200040Z 13008KT 03/M04 A3025 RMK A01 T00271037  RH  062%=      5-min Rain = 0
KBO1 200041Z 13008KT 03/M04 A3025 RMK A01 T00281037  RH  062%=      5-min Rain = 0
KBO1 200042Z 13008KT 03/M04 A3025 RMK A01 T00271037  RH  063%=      5-min Rain = 0
KBO1 200043Z 13008KT 03/M04 A3024 RMK A01 T00271037  RH  063%=      5-min Rain = 0
KBO1 200044Z 13008KT 03/M04 A3024 RMK A01 T00271037  RH  063%=      5-min Rain = 0
KBO1 200045Z 13008KT 03/M04 A3024 RMK A01 T00261037  RH  063%=      5-min Rain = 0
KBO1 200046Z 13007KT 03/M04 A3024 RMK A01 T00251037  RH  063%=      5-min Rain = 0
KBO1 200047Z 13008KT 02/M04 A3024 RMK A01 T00241038  RH  064%=      5-min Rain = 0
KBO1 200048Z 13008KT 02/M04 A3024 RMK A01 T00221038  RH  064%=      5-min Rain = 0
KBO1 200049Z 13008KT 02/M04 A3024 RMK A01 T00211037  RH  065%=      5-min Rain = 0
KBO1 200050Z 13008KT 02/M04 A3024 RMK A01 T00201037  RH  066%=      5-min Rain = 0
KBO1 200051Z 13008KT 02/M04 A3024 RMK A01 T00191037  RH  067%=      5-min Rain = 0
KBO1 200052Z 12008KT 02/M04 A3024 RMK A01 T00181036  RH  067%=      5-min Rain = 0
KBO1 200053Z 11007KT 02/M04 A3024 RMK A01 T00181036  RH  068%=      5-min Rain = 0
KBO1 200054Z 12008KT 02/M04 A3024 RMK A01 T00171035  RH  068%=      5-min Rain = 0
KBO1 200055Z 13008KT 02/M04 A3023 RMK A01 T00161035  RH  069%=      5-min Rain = 0
KBO1 200056Z 13007KT 02/M04 A3023 RMK A01 T00151035  RH  069%=      5-min Rain = 0
KBO1 200057Z 13007KT 02/M03 A3023 RMK A01 T00151034  RH  070%=      5-min Rain = 0
KBO1 200058Z 13007KT 01/M04 A3023 RMK A01 T00141035  RH  070%=      5-min Rain = 0
KBO1 200059Z 13008KT 01/M04 A3023 RMK A01 T00131035  RH  070%=      5-min Rain = 0
KBO1 200100Z 13008KT 01/M04 A3023 RMK A01 T00121035  RH  070%=      5-min Rain = 0
KBO1 200101Z 13008KT 01/M04 A3023 RMK A01 T00121035  RH  071%=      5-min Rain = 0
KBO1 200102Z 13008KT 01/M04 A3023 RMK A01 T00121035  RH  071%=      5-min Rain = 0
KBO1 200103Z 13008KT 01/M04 A3023 RMK A01 T00111036  RH  071%=      5-min Rain = 0
KBO1 200104Z 13008KT 01/M04 A3023 RMK A01 T00101036  RH  071%=      5-min Rain = 0
KBO1 200105Z 13008KT 01/M04 A3023 RMK A01 T00101036  RH  072%=      5-min Rain = 0
KBO1 200106Z 13008KT 01/M04 A3023 RMK A01 T00101036  RH  072%=      5-min Rain = 0
KBO1 200107Z 13007KT 01/M04 A3023 RMK A01 T00091035  RH  072%=      5-min Rain = 0
KBO1 200108Z 13007KT 01/M04 A3023 RMK A01 T00091035  RH  072%=      5-min Rain = 0
KBO1 200109Z 14007KT 01/M04 A3023 RMK A01 T00091035  RH  073%=      5-min Rain = 0
KBO1 200110Z 14007KT 01/M04 A3023 RMK A01 T00081035  RH  073%=      5-min Rain = 0
KBO1 200111Z 14006KT 01/M04 A3024 RMK A01 T00081035  RH  073%=      5-min Rain = 0
KBO1 200112Z 14006KT 01/M04 A3024 RMK A01 T00081035  RH  073%=      5-min Rain = 0
KBO1 200113Z 14007KT 01/M04 A3024 RMK A01 T00081035  RH  073%=      5-min Rain = 0
KBO1 200114Z 14007KT 01/M04 A3024 RMK A01 T00081035  RH  073%=      5-min Rain = 0
KBO1 200115Z 14006KT 01/M04 A3024 RMK A01 T00081035  RH  073%=      5-min Rain = 0
KBO1 200116Z 14007KT 01/M04 A3024 RMK A01 T00071035  RH  073%=      5-min Rain = 0
KBO1 200117Z 14007KT 01/M04 A3024 RMK A01 T00061036  RH  074%=      5-min Rain = 0
KBO1 200118Z 14007KT 01/M04 A3024 RMK A01 T00051036  RH  074%=      5-min Rain = 0
KBO1 200119Z 13007KT 00/M04 A3024 RMK A01 T00041037  RH  074%=      5-min Rain = 0
KBO1 200120Z 13007KT 00/M04 A3024 RMK A01 T00021037  RH  075%=      5-min Rain = 0
KBO1 200121Z 13007KT 00/M04 A3024 RMK A01 T00021037  RH  075%=      5-min Rain = 0
KBO1 200122Z 13007KT 00/M04 A3024 RMK A01 T00021037  RH  075%=      5-min Rain = 0
KBO1 200123Z 13007KT 00/M04 A3024 RMK A01 T00021036  RH  076%=      5-min Rain = 0
KBO1 200124Z 13007KT 00/M04 A3024 RMK A01 T00011036  RH  076%=      5-min Rain = 0
KBO1 200125Z 13007KT 00/M04 A3024 RMK A01 T00011036  RH  076%=      5-min Rain = 0
KBO1 200126Z 13006KT 00/M04 A3025 RMK A01 T00011036  RH  076%=      5-min Rain = 0
KBO1 200127Z 14006KT 00/M04 A3025 RMK A01 T00011036  RH  076%=      5-min Rain = 0
KBO1 200128Z 14006KT 00/M04 A3025 RMK A01 T00021036  RH  076%=      5-min Rain = 0
KBO1 200129Z 14006KT 00/M04 A3025 RMK A01 T00021036  RH  076%=      5-min Rain = 0
KBO1 200130Z 14006KT 00/M04 A3025 RMK A01 T00031036  RH  075%=      5-min Rain = 0
KBO1 200131Z 14005KT 00/M04 A3025 RMK A01 T00031036  RH  075%=      5-min Rain = 0
KBO1 200132Z 14005KT 00/M04 A3025 RMK A01 T00031036  RH  075%=      5-min Rain = 0
KBO1 200133Z 14005KT 00/M04 A3025 RMK A01 T00031035  RH  075%=      5-min Rain = 0
KBO1 200134Z 14005KT 00/M04 A3025 RMK A01 T00041035  RH  075%=      5-min Rain = 0
KBO1 200135Z 15005KT 01/M04 A3026 RMK A01 T00051035  RH  075%=      5-min Rain = 0
KBO1 200136Z 14006KT 01/M03 A3026 RMK A01 T00061034  RH  075%=      5-min Rain = 0
KBO1 200137Z 14006KT 01/M03 A3026 RMK A01 T00071034  RH  074%=      5-min Rain = 0
KBO1 200138Z 15006KT 01/M03 A3026 RMK A01 T00071034  RH  074%=      5-min Rain = 0
KBO1 200139Z 15007KT 01/M03 A3026 RMK A01 T00071034  RH  074%=      5-min Rain = 0
KBO1 200140Z 15007KT 01/M04 A3026 RMK A01 T00071035  RH  074%=      5-min Rain = 0
KBO1 200141Z 15007KT 01/M04 A3026 RMK A01 T00071035  RH  074%=      5-min Rain = 0
KBO1 200142Z 15008KT 01/M03 A3026 RMK A01 T00071034  RH  074%=      5-min Rain = 0
KBO1 200143Z 15008KT 01/M03 A3026 RMK A01 T00071034  RH  074%=      5-min Rain = 0
KBO1 200144Z 15008KT 01/M03 A3026 RMK A01 T00071034  RH  074%=      5-min Rain = 0
KBO1 200145Z 15007KT 01/M03 A3026 RMK A01 T00081033  RH  074%=      5-min Rain = 0
KBO1 200146Z 15007KT 01/M03 A3026 RMK A01 T00091032  RH  074%=      5-min Rain = 0
KBO1 200147Z 15008KT 01/M03 A3026 RMK A01 T00091032  RH  074%=      5-min Rain = 0
KBO1 200148Z 15008KT 01/M03 A3026 RMK A01 T00091032  RH  074%=      5-min Rain = 0
KBO1 200149Z 15008KT 01/M03 A3026 RMK A01 T00101032  RH  074%=      5-min Rain = 0
KBO1 200150Z 15008KT 01/M03 A3026 RMK A01 T00091032  RH  074%=      5-min Rain = 0
KBO1 200151Z 15008KT 01/M03 A3025 RMK A01 T00091033  RH  074%=      5-min Rain = 0
KBO1 200152Z 15008KT 01/M03 A3026 RMK A01 T00091033  RH  074%=      5-min Rain = 0
KBO1 200153Z 15007KT 01/M03 A3026 RMK A01 T00081033  RH  074%=      5-min Rain = 0
KBO1 200154Z 15007KT 01/M03 A3026 RMK A01 T00081033  RH  074%=      5-min Rain = 0
KBO1 200155Z 15007KT 01/M03 A3026 RMK A01 T00071033  RH  074%=      5-min Rain = 0
KBO1 200156Z 15006KT 01/M03 A3026 RMK A01 T00071034  RH  074%=      5-min Rain = 0
KBO1 200157Z 15007KT 01/M04 A3026 RMK A01 T00061035  RH  074%=      5-min Rain = 0
KBO1 200158Z 16007KT 01/M04 A3026 RMK A01 T00051036  RH  074%=      5-min Rain = 0
KBO1 200159Z 16007KT 00/M04 A3026 RMK A01 T00041036  RH  075%=      5-min Rain = 0
KBO1 200200Z 16007KT 00/M04 A3026 RMK A01 T00021037  RH  075%=      5-min Rain = 0
KBO1 200201Z 17007KT 00/M04 A3026 RMK A01 T00011037  RH  076%=      5-min Rain = 0
KBO1 200202Z 17007KT 00/04 A3026 RMK A01 T00000-37  RH  076%=      5-min Rain = 0
KBO1 200203Z 17007KT 00/04 A3026 RMK A01 T00000-36  RH  077%=      5-min Rain = 0
KBO1 200204Z 17007KT 00/04 A3026 RMK A01 T00-00-36  RH  077%=      5-min Rain = 0
KBO1 200205Z 17007KT M00/M04 A3025 RMK A01 T10011036  RH  077%=      5-min Rain = 0
KBO1 200206Z 17007KT M00/M04 A3025 RMK A01 T10021036  RH  078%=      5-min Rain = 0
KBO1 200207Z 17007KT M00/M04 A3025 RMK A01 T10021035  RH  078%=      5-min Rain = 0
KBO1 200208Z 17007KT M00/M04 A3025 RMK A01 T10031036  RH  079%=      5-min Rain = 0
KBO1 200209Z 17007KT M00/M04 A3026 RMK A01 T10041035  RH  079%=      5-min Rain = 0
KBO1 200210Z 17007KT M00/M04 A3026 RMK A01 T10041035  RH  080%=      5-min Rain = 0
KBO1 200211Z 17006KT M01/M03 A3026 RMK A01 T10051034  RH  081%=      5-min Rain = 0
KBO1 200212Z 18006KT M00/M03 A3026 RMK A01 T10041033  RH  081%=      5-min Rain = 0
KBO1 200213Z 18006KT M01/M04 A3026 RMK A01 T10051035  RH  080%=      5-min Rain = 0
KBO1 200214Z 18007KT M01/M04 A3026 RMK A01 T10061036  RH  080%=      5-min Rain = 0
KBO1 200215Z 17007KT M01/M04 A3026 RMK A01 T10071036  RH  081%=      5-min Rain = 0
KBO1 200216Z 17007KT M01/M04 A3026 RMK A01 T10081037  RH  081%=      5-min Rain = 0
KBO1 200217Z 17007KT M01/M04 A3025 RMK A01 T10091037  RH  081%=      5-min Rain = 0
KBO1 200218Z 17007KT M01/M04 A3025 RMK A01 T10091037  RH  081%=      5-min Rain = 0
KBO1 200219Z 17007KT M01/M04 A3025 RMK A01 T10101037  RH  082%=      5-min Rain = 0
KBO1 200220Z 17007KT M01/M04 A3025 RMK A01 T10101037  RH  082%=      5-min Rain = 0
KBO1 200221Z 17007KT M01/M04 A3025 RMK A01 T10111037  RH  082%=      5-min Rain = 0
KBO1 200222Z 17007KT M01/M04 A3025 RMK A01 T10121038  RH  082%=      5-min Rain = 0
KBO1 200223Z 17007KT M01/M04 A3025 RMK A01 T10121039  RH  082%=      5-min Rain = 0
KBO1 200224Z 17007KT M01/M04 A3025 RMK A01 T10141040  RH  083%=      5-min Rain = 0
KBO1 200225Z 17008KT M02/M04 A3025 RMK A01 T10151040  RH  083%=      5-min Rain = 0
KBO1 200226Z 17008KT M02/M04 A3025 RMK A01 T10161041  RH  083%=      5-min Rain = 0
KBO1 200227Z 17009KT M02/M04 A3024 RMK A01 T10171041  RH  084%=      5-min Rain = 0
KBO1 200228Z 17009KT M02/M04 A3024 RMK A01 T10171041  RH  084%=      5-min Rain = 0
KBO1 200229Z 17009KT M02/M04 A3024 RMK A01 T10171040  RH  084%=      5-min Rain = 0
KBO1 200230Z 17009KT M02/M04 A3024 RMK A01 T10171039  RH  085%=      5-min Rain = 0
KBO1 200231Z 17008KT M02/M04 A3025 RMK A01 T10151037  RH  085%=      5-min Rain = 0
KBO1 200232Z 17008KT M01/M04 A3025 RMK A01 T10131035  RH  085%=      5-min Rain = 0
KBO1 200233Z 17007KT M01/M03 A3025 RMK A01 T10101033  RH  085%=      5-min Rain = 0
KBO1 200234Z 17008KT M01/M03 A3025 RMK A01 T10081032  RH  084%=      5-min Rain = 0
KBO1 200235Z 17008KT M01/M03 A3025 RMK A01 T10071032  RH  083%=      5-min Rain = 0
KBO1 200236Z 18008KT M01/M03 A3025 RMK A01 T10061031  RH  083%=      5-min Rain = 0
KBO1 200237Z 18009KT M01/M03 A3025 RMK A01 T10051031  RH  082%=      5-min Rain = 0
KBO1 200238Z 18009KT M00/M03 A3025 RMK A01 T10041032  RH  082%=      5-min Rain = 0
KBO1 200239Z 17009KT M00/M03 A3025 RMK A01 T10041032  RH  081%=      5-min Rain = 0
KBO1 200240Z 17009KT M00/M03 A3025 RMK A01 T10041033  RH  081%=      5-min Rain = 0
KBO1 200241Z 18009KT M00/M03 A3025 RMK A01 T10041033  RH  081%=      5-min Rain = 0
KBO1 200242Z 17009KT M01/M03 A3025 RMK A01 T10051034  RH  081%=      5-min Rain = 0
KBO1 200243Z 17009KT M01/M03 A3025 RMK A01 T10051034  RH  081%=      5-min Rain = 0
KBO1 200244Z 17009KT M01/M03 A3025 RMK A01 T10051034  RH  081%=      5-min Rain = 0
KBO1 200245Z 17009KT M00/M03 A3025 RMK A01 T10041034  RH  080%=      5-min Rain = 0
KBO1 200246Z 17009KT M01/M04 A3025 RMK A01 T10051035  RH  080%=      5-min Rain = 0
KBO1 200247Z 17009KT M01/M04 A3025 RMK A01 T10051035  RH  080%=      5-min Rain = 0
KBO1 200248Z 17009KT M00/M03 A3025 RMK A01 T10041034  RH  080%=      5-min Rain = 0
KBO1 200249Z 17009KT M00/M03 A3024 RMK A01 T10041034  RH  080%=      5-min Rain = 0
KBO1 200250Z 17009KT M00/M03 A3024 RMK A01 T10031034  RH  080%=      5-min Rain = 0
KBO1 200251Z 17009KT M00/M03 A3024 RMK A01 T10031034  RH  080%=      5-min Rain = 0
KBO1 200252Z 17009KT M00/M03 A3024 RMK A01 T10031033  RH  080%=      5-min Rain = 0
KBO1 200253Z 17009KT M00/M03 A3024 RMK A01 T10021033  RH  080%=      5-min Rain = 0
KBO1 200254Z 17009KT M00/M03 A3024 RMK A01 T10021033  RH  080%=      5-min Rain = 0
KBO1 200255Z 17010KT M00/M03 A3024 RMK A01 T10021033  RH  080%=      5-min Rain = 0
KBO1 200256Z 18009KT M00/M03 A3024 RMK A01 T10021033  RH  080%=      5-min Rain = 0
KBO1 200257Z 18009KT M00/M03 A3024 RMK A01 T10011033  RH  079%=      5-min Rain = 0
KBO1 200258Z 18008KT M00/M03 A3024 RMK A01 T10011033  RH  079%=      5-min Rain = 0
KBO1 200259Z 18008KT M00/M03 A3025 RMK A01 T10011033  RH  079%=      5-min Rain = 0
KBO1 200300Z 18009KT M00/M03 A3025 RMK A01 T10011033  RH  079%=      5-min Rain = 0
KBO1 200301Z 18009KT M00/M03 A3025 RMK A01 T10021033  RH  079%=      5-min Rain = 0
KBO1 200302Z 18009KT M00/M03 A3025 RMK A01 T10021033  RH  079%=      5-min Rain = 0
KBO1 200303Z 17009KT M00/M03 A3025 RMK A01 T10021033  RH  080%=      5-min Rain = 0
KBO1 200304Z 17008KT M00/M03 A3025 RMK A01 T10031034  RH  080%=      5-min Rain = 0
KBO1 200305Z 17009KT M00/M03 A3025 RMK A01 T10031034  RH  080%=      5-min Rain = 0
KBO1 200306Z 18009KT M00/M03 A3025 RMK A01 T10041034  RH  080%=      5-min Rain = 0
KBO1 200307Z 18008KT M00/M03 A3025 RMK A01 T10041034  RH  080%=      5-min Rain = 0
KBO1 200308Z 18008KT M00/M03 A3025 RMK A01 T10041034  RH  080%=      5-min Rain = 0
KBO1 200309Z 18007KT M01/M03 A3025 RMK A01 T10051034  RH  080%=      5-min Rain = 0
KBO1 200310Z 18007KT M01/M04 A3025 RMK A01 T10051035  RH  081%=      5-min Rain = 0
KBO1 200311Z 18007KT M01/M04 A3025 RMK A01 T10061035  RH  081%=      5-min Rain = 0
KBO1 200312Z 18008KT M01/M04 A3025 RMK A01 T10061035  RH  081%=      5-min Rain = 0
KBO1 200313Z 18008KT M01/M04 A3025 RMK A01 T10071035  RH  081%=      5-min Rain = 0
KBO1 200314Z 18007KT M01/M04 A3025 RMK A01 T10071036  RH  081%=      5-min Rain = 0
KBO1 200315Z 18007KT M01/M04 A3025 RMK A01 T10071036  RH  081%=      5-min Rain = 0
KBO1 200316Z 18007KT M01/M04 A3025 RMK A01 T10081036  RH  081%=      5-min Rain = 0
KBO1 200317Z 18008KT M01/M04 A3025 RMK A01 T10091038  RH  081%=      5-min Rain = 0
KBO1 200318Z 18008KT M01/M04 A3025 RMK A01 T10101039  RH  081%=      5-min Rain = 0
KBO1 200319Z 18008KT M01/M04 A3025 RMK A01 T10111040  RH  081%=      5-min Rain = 0
KBO1 200320Z 18008KT M01/M04 A3025 RMK A01 T10121040  RH  081%=      5-min Rain = 0
KBO1 200321Z 18008KT M01/M04 A3025 RMK A01 T10131041  RH  082%=      5-min Rain = 0
KBO1 200322Z 18008KT M01/M04 A3025 RMK A01 T10141041  RH  082%=      5-min Rain = 0
KBO1 200323Z 18008KT M01/M04 A3025 RMK A01 T10141041  RH  082%=      5-min Rain = 0
KBO1 200324Z 18008KT M01/M04 A3025 RMK A01 T10141040  RH  083%=      5-min Rain = 0
KBO1 200325Z 18008KT M01/M04 A3025 RMK A01 T10141040  RH  083%=      5-min Rain = 0
KBO1 200326Z 18008KT M02/M04 A3025 RMK A01 T10151040  RH  083%=      5-min Rain = 0
KBO1 200327Z 18007KT M02/M04 A3025 RMK A01 T10151040  RH  083%=      5-min Rain = 0
KBO1 200328Z 18008KT M02/M04 A3025 RMK A01 T10151040  RH  083%=      5-min Rain = 0
KBO1 200329Z 18008KT M02/M04 A3025 RMK A01 T10151040  RH  083%=      5-min Rain = 0
KBO1 200330Z 18009KT M02/M04 A3025 RMK A01 T10161040  RH  083%=      5-min Rain = 0
KBO1 200331Z 18009KT M02/M04 A3025 RMK A01 T10161040  RH  084%=      5-min Rain = 0
KBO1 200332Z 18009KT M02/M04 A3025 RMK A01 T10161040  RH  084%=      5-min Rain = 0
KBO1 200333Z 18010KT M02/M04 A3025 RMK A01 T10161040  RH  084%=      5-min Rain = 0
KBO1 200334Z 18010KT M02/M04 A3025 RMK A01 T10151039  RH  084%=      5-min Rain = 0
KBO1 200335Z 18009KT M01/M04 A3025 RMK A01 T10141038  RH  084%=      5-min Rain = 0
KBO1 200336Z 17009KT M01/M04 A3025 RMK A01 T10141037  RH  084%=      5-min Rain = 0
KBO1 200337Z 17009KT M01/M04 A3024 RMK A01 T10121036  RH  084%=      5-min Rain = 0
KBO1 200338Z 17009KT M01/M04 A3024 RMK A01 T10111035  RH  084%=      5-min Rain = 0
KBO1 200339Z 17009KT M01/M04 A3024 RMK A01 T10111036  RH  083%=      5-min Rain = 0
KBO1 200340Z 17009KT M01/M04 A3024 RMK A01 T10101035  RH  083%=      5-min Rain = 0
KBO1 200341Z 17009KT M01/M04 A3024 RMK A01 T10101035  RH  083%=      5-min Rain = 0
KBO1 200342Z 17010KT M01/M04 A3024 RMK A01 T10101035  RH  083%=      5-min Rain = 0
KBO1 200343Z 17010KT M01/M04 A3024 RMK A01 T10101035  RH  083%=      5-min Rain = 0
KBO1 200344Z 17011KT M01/M04 A3024 RMK A01 T10101035  RH  083%=      5-min Rain = 0
KBO1 200345Z 17010KT M01/M03 A3024 RMK A01 T10091034  RH  083%=      5-min Rain = 0
KBO1 200346Z 17010KT M01/M03 A3024 RMK A01 T10081033  RH  083%=      5-min Rain = 0
KBO1 200347Z 17010KT M01/M03 A3024 RMK A01 T10071032  RH  083%=      5-min Rain = 0
KBO1 200348Z 17010KT M01/M03 A3024 RMK A01 T10061032  RH  083%=      5-min Rain = 0
KBO1 200349Z 17010KT M01/M03 A3024 RMK A01 T10051030  RH  083%=      5-min Rain = 0
KBO1 200350Z 18011KT M00/M03 A3024 RMK A01 T10031029  RH  082%=      5-min Rain = 0
KBO1 200351Z 18011KT M00/M03 A3024 RMK A01 T10021029  RH  082%=      5-min Rain = 0
KBO1 200352Z 18011KT M00/M03 A3024 RMK A01 T10011030  RH  081%=      5-min Rain = 0
KBO1 200353Z 18011KT M00/M03 A3023 RMK A01 T10011031  RH  081%=      5-min Rain = 0
KBO1 200354Z 18011KT M00/M03 A3023 RMK A01 T10011030  RH  081%=      5-min Rain = 0
KBO1 200355Z 17011KT M00/M03 A3023 RMK A01 T10021031  RH  081%=      5-min Rain = 0
KBO1 200356Z 17011KT M00/M03 A3023 RMK A01 T10021030  RH  081%=      5-min Rain = 0
KBO1 200357Z 18010KT M00/M03 A3023 RMK A01 T10021031  RH  081%=      5-min Rain = 0
KBO1 200358Z 18010KT M00/M03 A3024 RMK A01 T10031032  RH  081%=      5-min Rain = 0
KBO1 200359Z 18010KT M00/M03 A3024 RMK A01 T10041032  RH  081%=      5-min Rain = 0
KBO1 200400Z 18010KT M01/M03 A3024 RMK A01 T10051033  RH  082%=      5-min Rain = 0
KBO1 200401Z 18011KT M01/M03 A3024 RMK A01 T10061033  RH  082%=      5-min Rain = 0
KBO1 200402Z 18010KT M01/M03 A3024 RMK A01 T10061032  RH  082%=      5-min Rain = 0
KBO1 200403Z 18011KT M01/M03 A3025 RMK A01 T10051031  RH  083%=      5-min Rain = 0
KBO1 200404Z 18010KT M00/M03 A3025 RMK A01 T10041030  RH  083%=      5-min Rain = 0
KBO1 200405Z 18010KT M00/M03 A3024 RMK A01 T10031030  RH  082%=      5-min Rain = 0
KBO1 200406Z 18010KT M00/M03 A3024 RMK A01 T10031030  RH  082%=      5-min Rain = 0
KBO1 200407Z 18009KT M00/M03 A3024 RMK A01 T10031030  RH  082%=      5-min Rain = 0
KBO1 200408Z 18010KT M00/M03 A3024 RMK A01 T10041030  RH  082%=      5-min Rain = 0
KBO1 200409Z 19010KT M00/M03 A3024 RMK A01 T10041030  RH  083%=      5-min Rain = 0
KBO1 200410Z 18010KT M01/M03 A3024 RMK A01 T10051029  RH  083%=      5-min Rain = 0
KBO1 200411Z 18010KT M01/M03 A3024 RMK A01 T10051029  RH  084%=      5-min Rain = 0
KBO1 200412Z 18009KT M00/M03 A3024 RMK A01 T10041029  RH  084%=      5-min Rain = 0
KBO1 200413Z 18009KT M00/M03 A3024 RMK A01 T10041029  RH  084%=      5-min Rain = 0
KBO1 200414Z 18010KT M00/M03 A3024 RMK A01 T10041028  RH  084%=      5-min Rain = 0
KBO1 200415Z 18010KT M00/M03 A3024 RMK A01 T10041028  RH  083%=      5-min Rain = 0
KBO1 200416Z 18010KT M00/M03 A3024 RMK A01 T10031028  RH  083%=      5-min Rain = 0
KBO1 200417Z 18011KT M00/M03 A3024 RMK A01 T10031028  RH  083%=      5-min Rain = 0
KBO1 200418Z 18010KT M00/M03 A3024 RMK A01 T10031029  RH  083%=      5-min Rain = 0
KBO1 200419Z 17010KT M00/M03 A3024 RMK A01 T10031029  RH  083%=      5-min Rain = 0
KBO1 200420Z 17010KT M00/M03 A3024 RMK A01 T10031029  RH  083%=      5-min Rain = 0
KBO1 200421Z 17010KT M00/M03 A3024 RMK A01 T10031029  RH  083%=      5-min Rain = 0
KBO1 200422Z 17010KT M00/M03 A3023 RMK A01 T10041029  RH  083%=      5-min Rain = 0
KBO1 200423Z 17011KT M00/M03 A3023 RMK A01 T10031028  RH  083%=      5-min Rain = 0
KBO1 200424Z 17011KT M00/M03 A3023 RMK A01 T10031028  RH  083%=      5-min Rain = 0
KBO1 200425Z 17011KT M00/M03 A3023 RMK A01 T10021028  RH  083%=      5-min Rain = 0
KBO1 200426Z 17011KT M00/M03 A3023 RMK A01 T10021028  RH  083%=      5-min Rain = 0
KBO1 200427Z 17012KT M00/M03 A3023 RMK A01 T10021028  RH  082%=      5-min Rain = 0
KBO1 200428Z 17012KT M00/M03 A3023 RMK A01 T10011028  RH  082%=      5-min Rain = 0
KBO1 200429Z 17011KT M00/M03 A3023 RMK A01 T10011028  RH  082%=      5-min Rain = 0
KBO1 200430Z 18011KT 00/03 A3023 RMK A01 T00-00-28  RH  082%=      5-min Rain = 0
KBO1 200431Z 17011KT 00/03 A3023 RMK A01 T00-00-28  RH  081%=      5-min Rain = 0
KBO1 200432Z 18011KT 00/03 A3023 RMK A01 T00000-28  RH  081%=      5-min Rain = 0
KBO1 200433Z 17011KT 00/03 A3023 RMK A01 T00-00-28  RH  081%=      5-min Rain = 0
KBO1 200434Z 18012KT 00/03 A3023 RMK A01 T00-00-28  RH  081%=      5-min Rain = 0
KBO1 200435Z 18011KT M00/M03 A3023 RMK A01 T10011029  RH  081%=      5-min Rain = 0
KBO1 200436Z 18011KT M00/M03 A3023 RMK A01 T10021029  RH  082%=      5-min Rain = 0
KBO1 200437Z 17012KT M00/M03 A3023 RMK A01 T10021029  RH  082%=      5-min Rain = 0
KBO1 200438Z 17012KT M00/M03 A3023 RMK A01 T10021028  RH  082%=      5-min Rain = 0
KBO1 200439Z 18011KT M00/M03 A3023 RMK A01 T10011029  RH  082%=      5-min Rain = 0
KBO1 200440Z 18011KT M00/M03 A3023 RMK A01 T10011029  RH  082%=      5-min Rain = 0
KBO1 200441Z 18011KT M00/M03 A3023 RMK A01 T10011029  RH  082%=      5-min Rain = 0
KBO1 200442Z 18011KT M00/M03 A3023 RMK A01 T10011028  RH  082%=      5-min Rain = 0
KBO1 200443Z 18011KT M00/M03 A3023 RMK A01 T10011028  RH  082%=      5-min Rain = 0
KBO1 200444Z 18011KT M00/M03 A3023 RMK A01 T10011028  RH  082%=      5-min Rain = 0
KBO1 200445Z 18011KT M00/M03 A3023 RMK A01 T10011028  RH  082%=      5-min Rain = 0
KBO1 200446Z 18012KT M00/M03 A3023 RMK A01 T10021029  RH  082%=      5-min Rain = 0
KBO1 200447Z 18012KT M00/M03 A3023 RMK A01 T10021029  RH  082%=      5-min Rain = 0
KBO1 200448Z 18011KT M00/M03 A3023 RMK A01 T10021029  RH  082%=      5-min Rain = 0
KBO1 200449Z 18012KT M00/M03 A3023 RMK A01 T10021029  RH  082%=      5-min Rain = 0
KBO1 200450Z 17012KT M00/M03 A3023 RMK A01 T10021029  RH  082%=      5-min Rain = 0
KBO1 200451Z 17012KT M00/M03 A3023 RMK A01 T10011028  RH  082%=      5-min Rain = 0
KBO1 200452Z 17012KT 00/03 A3023 RMK A01 T00-00-28  RH  082%=      5-min Rain = 0
KBO1 200453Z 17011KT 00/M03 A3023 RMK A01 T00011027  RH  081%=      5-min Rain = 0
KBO1 200454Z 17011KT 00/M03 A3023 RMK A01 T00011028  RH  081%=      5-min Rain = 0
KBO1 200455Z 17012KT 00/M03 A3023 RMK A01 T00011027  RH  081%=      5-min Rain = 0
KBO1 200456Z 17012KT 00/M03 A3023 RMK A01 T00011027  RH  081%=      5-min Rain = 0
KBO1 200457Z 17012KT 00/M03 A3023 RMK A01 T00011027  RH  081%=      5-min Rain = 0
KBO1 200458Z 17011KT 00/M03 A3023 RMK A01 T00011028  RH  081%=      5-min Rain = 0
KBO1 200459Z 17011KT 00/M03 A3023 RMK A01 T00021028  RH  081%=      5-min Rain = 0
KBO1 200500Z 18011KT 00/M03 A3024 RMK A01 T00011028  RH  081%=      5-min Rain = 0
KBO1 200501Z 18011KT 00/03 A3024 RMK A01 T00000-29  RH  081%=      5-min Rain = 0
KBO1 200502Z 18011KT 00/03 A3024 RMK A01 T00000-29  RH  081%=      5-min Rain = 0
KBO1 200503Z 18010KT 00/03 A3024 RMK A01 T00-00-29  RH  081%=      5-min Rain = 0
KBO1 200504Z 18011KT M00/M03 A3024 RMK A01 T10011030  RH  081%=      5-min Rain = 0
KBO1 200505Z 18011KT M00/M03 A3024 RMK A01 T10021030  RH  081%=      5-min Rain = 0
KBO1 200506Z 17011KT M00/M03 A3024 RMK A01 T10021030  RH  082%=      5-min Rain = 0
KBO1 200507Z 17011KT M00/M03 A3023 RMK A01 T10021030  RH  082%=      5-min Rain = 0
KBO1 200508Z 17012KT M00/M03 A3023 RMK A01 T10021029  RH  082%=      5-min Rain = 0
KBO1 200509Z 17011KT M00/M03 A3023 RMK A01 T10021030  RH  082%=      5-min Rain = 0
KBO1 200510Z 18011KT M00/M03 A3023 RMK A01 T10021030  RH  082%=      5-min Rain = 0
KBO1 200511Z 17010KT M00/M03 A3023 RMK A01 T10021030  RH  082%=      5-min Rain = 0
KBO1 200512Z 17010KT M00/M03 A3023 RMK A01 T10031030  RH  082%=      5-min Rain = 0
KBO1 200513Z 18010KT M00/M03 A3024 RMK A01 T10021030  RH  082%=      5-min Rain = 0
KBO1 200514Z 18010KT M00/M03 A3024 RMK A01 T10021030  RH  082%=      5-min Rain = 0
KBO1 200515Z 18009KT M00/M03 A3024 RMK A01 T10031030  RH  082%=      5-min Rain = 0
KBO1 200516Z 18010KT M00/M03 A3024 RMK A01 T10031031  RH  081%=      5-min Rain = 0
KBO1 200517Z 18008KT M00/M03 A3025 RMK A01 T10031031  RH  081%=      5-min Rain = 0
KBO1 200518Z 18008KT M00/M03 A3025 RMK A01 T10031031  RH  081%=      5-min Rain = 0
KBO1 200519Z 17008KT M00/M03 A3025 RMK A01 T10041032  RH  081%=      5-min Rain = 0
KBO1 200520Z 18009KT M00/M03 A3025 RMK A01 T10041032  RH  081%=      5-min Rain = 0
KBO1 200521Z 17009KT M00/M03 A3024 RMK A01 T10041032  RH  082%=      5-min Rain = 0
KBO1 200522Z 17009KT M01/M03 A3024 RMK A01 T10051032  RH  082%=      5-min Rain = 0
KBO1 200523Z 17008KT M01/M03 A3024 RMK A01 T10051032  RH  082%=      5-min Rain = 0
KBO1 200524Z 17009KT M01/M03 A3024 RMK A01 T10051032  RH  082%=      5-min Rain = 0
KBO1 200525Z 17009KT M01/M03 A3025 RMK A01 T10061033  RH  082%=      5-min Rain = 0
KBO1 200526Z 17009KT M01/M03 A3025 RMK A01 T10061033  RH  082%=      5-min Rain = 0
KBO1 200527Z 17009KT M01/M03 A3025 RMK A01 T10071033  RH  082%=      5-min Rain = 0
KBO1 200528Z 17009KT M01/M03 A3025 RMK A01 T10071033  RH  082%=      5-min Rain = 0
KBO1 200529Z 17010KT M01/M03 A3025 RMK A01 T10071033  RH  083%=      5-min Rain = 0
KBO1 200530Z 17010KT M01/M03 A3025 RMK A01 T10081034  RH  083%=      5-min Rain = 0
KBO1 200531Z 18010KT M01/M03 A3025 RMK A01 T10081034  RH  083%=      5-min Rain = 0
KBO1 200532Z 17010KT M01/M03 A3024 RMK A01 T10081033  RH  083%=      5-min Rain = 0
KBO1 200533Z 18010KT M01/M03 A3024 RMK A01 T10081033  RH  083%=      5-min Rain = 0
KBO1 200534Z 18010KT M01/M03 A3024 RMK A01 T10081033  RH  083%=      5-min Rain = 0
KBO1 200535Z 17010KT M01/M03 A3024 RMK A01 T10081033  RH  083%=      5-min Rain = 0
KBO1 200536Z 17010KT M01/M03 A3024 RMK A01 T10071033  RH  083%=      5-min Rain = 0
KBO1 200537Z 18010KT M01/M03 A3024 RMK A01 T10081034  RH  083%=      5-min Rain = 0
KBO1 200538Z 17010KT M01/M03 A3025 RMK A01 T10081034  RH  083%=      5-min Rain = 0
KBO1 200539Z 18010KT M01/M03 A3025 RMK A01 T10071033  RH  083%=      5-min Rain = 0
KBO1 200540Z 18010KT M01/M03 A3025 RMK A01 T10071033  RH  082%=      5-min Rain = 0
KBO1 200541Z 18010KT M01/M03 A3025 RMK A01 T10061033  RH  082%=      5-min Rain = 0
KBO1 200542Z 18011KT M01/M03 A3025 RMK A01 T10061033  RH  082%=      5-min Rain = 0
KBO1 200543Z 18010KT M01/M03 A3025 RMK A01 T10061033  RH  082%=      5-min Rain = 0
KBO1 200544Z 17011KT M01/M03 A3025 RMK A01 T10051033  RH  081%=      5-min Rain = 0
KBO1 200545Z 17012KT M01/M03 A3025 RMK A01 T10051033  RH  081%=      5-min Rain = 0
KBO1 200546Z 18011KT M01/M03 A3025 RMK A01 T10051033  RH  081%=      5-min Rain = 0
KBO1 200547Z 18011KT M00/M03 A3025 RMK A01 T10041033  RH  081%=      5-min Rain = 0
KBO1 200548Z 18012KT M00/M03 A3024 RMK A01 T10031032  RH  081%=      5-min Rain = 0
KBO1 200549Z 18012KT M00/M03 A3024 RMK A01 T10021032  RH  081%=      5-min Rain = 0
KBO1 200550Z 18012KT M00/M03 A3024 RMK A01 T10021032  RH  080%=      5-min Rain = 0
KBO1 200551Z 17013KT M00/M03 A3024 RMK A01 T10021031  RH  080%=      5-min Rain = 0
KBO1 200552Z 17012KT M00/M03 A3024 RMK A01 T10021032  RH  080%=      5-min Rain = 0
KBO1 200553Z 17012KT M00/M03 A3024 RMK A01 T10011031  RH  080%=      5-min Rain = 0
KBO1 200554Z 17013KT M00/M03 A3024 RMK A01 T10011031  RH  080%=      5-min Rain = 0
KBO1 200555Z 17013KT 00/03 A3024 RMK A01 T00-00-30  RH  080%=      5-min Rain = 0
KBO1 200556Z 17013KT 00/M03 A3024 RMK A01 T00011030  RH  080%=      5-min Rain = 0
KBO1 200557Z 17013KT 00/M03 A3024 RMK A01 T00011030  RH  080%=      5-min Rain = 0
KBO1 200558Z 18013KT 00/M03 A3024 RMK A01 T00011030  RH  079%=      5-min Rain = 0
KBO1 200559Z 17013KT 00/M03 A3024 RMK A01 T00021030  RH  079%=      5-min Rain = 0

Page generated in 0.1303 seconds.